Time,TemperatureF,DewpointF,PressureIn,WindDirection,WindDirectionDegrees,WindSpeedMPH,WindSpeedGustMPH,Humidity,HourlyPrecipIn,Conditions,Clouds,dailyrainin,SoftwareType,DateUTC
2013-01-03 00:03:00,21.1,12.8,30.26,WNW,296,1.0,7.0,70,0.00,,,0.00,Wunderground v.1.15,2013-01-03 05:03:00,
2013-01-03 00:05:00,21.1,13.2,30.26,WNW,296,1.0,7.0,71,0.00,,,0.00,Wunderground v.1.15,2013-01-03 05:05:00,
2013-01-03 00:10:00,21.0,13.1,30.26,NW,317,0.0,0.0,71,0.00,,,0.00,Wunderground v.1.15,2013-01-03 05:10:00,
2013-01-03 00:11:00,21.1,13.2,30.26,WNW,286,0.0,0.0,71,0.00,,,0.00,Wunderground v.1.15,2013-01-03 05:11:00,
2013-01-03 00:15:00,21.1,13.2,30.25,NW,311,1.0,3.0,71,0.00,,,0.00,Wunderground v.1.15,2013-01-03 05:15:00,
2013-01-03 00:16:00,21.1,13.2,30.25,WNW,300,1.0,3.0,71,0.00,,,0.00,Wunderground v.1.15,2013-01-03 05:16:00,
2013-01-03 00:17:00,21.1,13.2,30.25,NW,309,1.0,3.0,71,0.00,,,0.00,Wunderground v.1.15,2013-01-03 05:17:00,
2013-01-03 00:22:00,21.0,13.1,30.25,NNW,337,1.0,3.0,71,0.00,,,0.00,Wunderground v.1.15,2013-01-03 05:22:00,
2013-01-03 00:23:00,21.1,13.2,30.25,NW,317,1.0,3.0,71,0.00,,,0.00,Wunderground v.1.15,2013-01-03 05:23:00,
2013-01-03 00:24:00,21.1,13.2,30.25,NW,319,1.0,3.0,71,0.00,,,0.00,Wunderground v.1.15,2013-01-03 05:24:00,
2013-01-03 00:27:00,21.2,13.3,30.25,NW,325,1.0,4.0,71,0.00,,,0.00,Wunderground v.1.15,2013-01-03 05:27:00,
2013-01-03 00:30:00,21.1,13.2,30.25,NW,306,1.0,1.0,71,0.00,,,0.00,Wunderground v.1.15,2013-01-03 05:30:00,
2013-01-03 00:32:00,21.1,13.2,30.24,WNW,298,1.0,9.0,71,0.00,,,0.00,Wunderground v.1.15,2013-01-03 05:32:00,
2013-01-03 00:33:00,21.0,13.1,30.25,NW,309,1.0,9.0,71,0.00,,,0.00,Wunderground v.1.15,2013-01-03 05:33:00,
2013-01-03 00:37:00,20.9,13.3,30.24,NW,316,1.0,9.0,72,0.00,,,0.00,Wunderground v.1.15,2013-01-03 05:37:00,
2013-01-03 00:39:00,20.9,13.3,30.24,NW,322,1.0,9.0,72,0.00,,,0.00,Wunderground v.1.15,2013-01-03 05:39:00,
2013-01-03 00:41:00,20.9,13.3,30.25,NNW,335,1.0,6.0,72,0.00,,,0.00,Wunderground v.1.15,2013-01-03 05:41:00,
2013-01-03 00:44:00,21.0,13.4,30.25,NW,315,1.0,6.0,72,0.00,,,0.00,Wunderground v.1.15,2013-01-03 05:44:00,
2013-01-03 00:48:00,21.1,13.5,30.24,NNW,346,1.0,6.0,72,0.00,,,0.00,Wunderground v.1.15,2013-01-03 05:48:00,
2013-01-03 00:49:00,21.1,13.5,30.24,NW,305,1.0,6.0,72,0.00,,,0.00,Wunderground v.1.15,2013-01-03 05:49:00,
2013-01-03 00:53:00,21.1,13.5,30.24,WNW,298,2.0,6.0,72,0.00,,,0.00,Wunderground v.1.15,2013-01-03 05:53:00,
2013-01-03 00:54:00,21.2,13.6,30.24,WNW,289,2.0,6.0,72,0.00,,,0.00,Wunderground v.1.15,2013-01-03 05:54:00,
2013-01-03 00:55:00,21.2,13.6,30.24,WNW,303,2.0,6.0,72,0.00,,,0.00,Wunderground v.1.15,2013-01-03 05:55:00,
2013-01-03 00:58:00,21.3,13.7,30.24,NW,314,2.0,6.0,72,0.00,,,0.00,Wunderground v.1.15,2013-01-03 05:58:00,
2013-01-03 00:59:00,21.3,13.7,30.24,NW,306,2.0,6.0,72,0.00,,,0.00,Wunderground v.1.15,2013-01-03 05:59:00,
2013-01-03 01:01:00,21.3,13.7,30.24,NW,310,2.0,7.0,72,0.00,,,0.00,Wunderground v.1.15,2013-01-03 06:01:00,
2013-01-03 01:02:00,21.3,13.7,30.24,West,279,2.0,7.0,72,0.00,,,0.00,Wunderground v.1.15,2013-01-03 06:02:00,
2013-01-03 01:04:00,21.2,13.6,30.24,NW,324,2.0,7.0,72,0.00,,,0.00,Wunderground v.1.15,2013-01-03 06:04:00,
2013-01-03 01:05:00,21.2,13.6,30.24,WNW,292,2.0,7.0,72,0.00,,,0.00,Wunderground v.1.15,2013-01-03 06:05:00,
2013-01-03 01:07:00,21.2,13.6,30.24,NW,315,2.0,7.0,72,0.00,,,0.00,Wunderground v.1.15,2013-01-03 06:07:00,
2013-01-03 01:08:00,21.1,13.5,30.24,WNW,299,2.0,7.0,72,0.00,,,0.00,Wunderground v.1.15,2013-01-03 06:08:00,
2013-01-03 01:09:00,21.1,13.5,30.24,NW,321,2.0,7.0,72,0.00,,,0.00,Wunderground v.1.15,2013-01-03 06:09:00,
2013-01-03 01:11:00,21.1,13.5,30.24,WNW,294,2.0,6.0,72,0.00,,,0.00,Wunderground v.1.15,2013-01-03 06:11:00,
2013-01-03 01:13:00,21.2,13.6,30.23,WNW,297,2.0,6.0,72,0.00,,,0.00,Wunderground v.1.15,2013-01-03 06:13:00,
2013-01-03 01:16:00,21.3,13.7,30.23,NW,305,2.0,6.0,72,0.00,,,0.00,Wunderground v.1.15,2013-01-03 06:16:00,
2013-01-03 01:17:00,21.3,13.7,30.23,WNW,300,2.0,6.0,72,0.00,,,0.00,Wunderground v.1.15,2013-01-03 06:17:00,
2013-01-03 01:18:00,21.2,13.6,30.23,NNW,329,2.0,6.0,72,0.00,,,0.00,Wunderground v.1.15,2013-01-03 06:18:00,
2013-01-03 01:19:00,21.2,13.6,30.23,NW,313,2.0,6.0,72,0.00,,,0.00,Wunderground v.1.15,2013-01-03 06:19:00,
2013-01-03 01:21:00,21.3,13.7,30.23,NW,321,2.0,2.0,72,0.00,,,0.00,Wunderground v.1.15,2013-01-03 06:21:00,
2013-01-03 01:24:00,21.3,13.7,30.23,NW,322,2.0,6.0,72,0.00,,,0.00,Wunderground v.1.15,2013-01-03 06:24:00,
2013-01-03 01:27:00,21.4,13.8,30.23,NW,305,3.0,6.0,72,0.00,,,0.00,Wunderground v.1.15,2013-01-03 06:27:00,
2013-01-03 01:28:00,21.3,13.7,30.23,NNW,330,3.0,6.0,72,0.00,,,0.00,Wunderground v.1.15,2013-01-03 06:28:00,
2013-01-03 01:32:00,21.2,13.6,30.23,NW,312,2.0,9.0,72,0.00,,,0.00,Wunderground v.1.15,2013-01-03 06:32:00,
2013-01-03 01:33:00,21.2,13.6,30.23,NNW,330,2.0,9.0,72,0.00,,,0.00,Wunderground v.1.15,2013-01-03 06:33:00,
2013-01-03 01:36:00,21.2,13.6,30.23,NW,305,1.0,9.0,72,0.00,,,0.00,Wunderground v.1.15,2013-01-03 06:36:00,
2013-01-03 01:39:00,21.2,13.9,30.24,NW,311,1.0,9.0,73,0.00,,,0.00,Wunderground v.1.15,2013-01-03 06:39:00,
2013-01-03 01:40:00,21.1,13.8,30.24,NW,325,1.0,1.0,73,0.00,,,0.00,Wunderground v.1.15,2013-01-03 06:40:00,
2013-01-03 01:45:00,21.2,13.9,30.24,West,277,1.0,5.0,73,0.00,,,0.00,Wunderground v.1.15,2013-01-03 06:45:00,
2013-01-03 01:46:00,21.2,13.9,30.24,NNW,330,2.0,5.0,73,0.00,,,0.00,Wunderground v.1.15,2013-01-03 06:46:00,
2013-01-03 01:49:00,21.2,13.9,30.23,WNW,293,2.0,5.0,73,0.00,,,0.00,Wunderground v.1.15,2013-01-03 06:49:00,
2013-01-03 01:51:00,21.2,13.9,30.23,NW,326,2.0,4.0,73,0.00,,,0.00,Wunderground v.1.15,2013-01-03 06:51:00,
2013-01-03 01:53:00,21.3,14.0,30.24,NW,309,3.0,4.0,73,0.00,,,0.00,Wunderground v.1.15,2013-01-03 06:53:00,
2013-01-03 01:57:00,21.4,14.1,30.24,North,360,2.0,8.0,73,0.00,,,0.00,Wunderground v.1.15,2013-01-03 06:57:00,
2013-01-03 01:59:00,21.4,14.1,30.24,NW,319,3.0,8.0,73,0.00,,,0.00,Wunderground v.1.15,2013-01-03 06:59:00,
2013-01-03 02:00:00,21.5,14.2,30.24,NW,326,3.0,4.0,73,0.00,,,0.00,Wunderground v.1.15,2013-01-03 07:00:00,
2013-01-03 02:04:00,21.5,14.2,30.24,NW,320,3.0,12.0,73,0.00,,,0.00,Wunderground v.1.15,2013-01-03 07:04:00,
2013-01-03 02:07:00,21.4,14.1,30.24,NW,326,2.0,12.0,73,0.00,,,0.00,Wunderground v.1.15,2013-01-03 07:07:00,
2013-01-03 02:09:00,21.4,14.1,30.24,NW,304,2.0,12.0,73,0.00,,,0.00,Wunderground v.1.15,2013-01-03 07:09:00,
2013-01-03 02:12:00,21.3,14.0,30.24,WNW,303,1.0,2.0,73,0.00,,,0.00,Wunderground v.1.15,2013-01-03 07:12:00,
2013-01-03 02:15:00,21.3,14.0,30.24,NW,306,1.0,3.0,73,0.00,,,0.00,Wunderground v.1.15,2013-01-03 07:15:00,
2013-01-03 02:16:00,21.3,14.0,30.24,NNW,340,1.0,3.0,73,0.00,,,0.00,Wunderground v.1.15,2013-01-03 07:16:00,
2013-01-03 02:18:00,21.3,14.0,30.24,NW,313,1.0,4.0,73,0.00,,,0.00,Wunderground v.1.15,2013-01-03 07:18:00,
2013-01-03 02:21:00,21.3,14.0,30.25,NW,317,1.0,3.0,73,0.00,,,0.00,Wunderground v.1.15,2013-01-03 07:21:00,
2013-01-03 02:22:00,21.3,14.0,30.24,NW,319,1.0,3.0,73,0.00,,,0.00,Wunderground v.1.15,2013-01-03 07:22:00,
2013-01-03 02:23:00,21.4,14.1,30.24,WNW,303,2.0,3.0,73,0.00,,,0.00,Wunderground v.1.15,2013-01-03 07:23:00,
2013-01-03 02:27:00,21.4,14.1,30.25,NW,313,2.0,4.0,73,0.00,,,0.00,Wunderground v.1.15,2013-01-03 07:27:00,
2013-01-03 02:28:00,21.5,14.2,30.24,West,281,2.0,4.0,73,0.00,,,0.00,Wunderground v.1.15,2013-01-03 07:28:00,
2013-01-03 02:31:00,21.5,14.2,30.24,NW,320,2.0,10.0,73,0.00,,,0.00,Wunderground v.1.15,2013-01-03 07:31:00,
2013-01-03 02:32:00,21.5,14.2,30.24,NW,325,2.0,10.0,73,0.00,,,0.00,Wunderground v.1.15,2013-01-03 07:32:00,
2013-01-03 02:33:00,21.5,14.2,30.24,WNW,294,2.0,10.0,73,0.00,,,0.00,Wunderground v.1.15,2013-01-03 07:33:00,
2013-01-03 02:34:00,21.5,14.2,30.24,NNW,327,2.0,10.0,73,0.00,,,0.00,Wunderground v.1.15,2013-01-03 07:34:00,
2013-01-03 02:38:00,21.6,14.3,30.25,NNW,333,2.0,10.0,73,0.00,,,0.00,Wunderground v.1.15,2013-01-03 07:38:00,
2013-01-03 02:39:00,21.6,14.3,30.25,NNW,333,2.0,10.0,73,0.00,,,0.00,Wunderground v.1.15,2013-01-03 07:39:00,
2013-01-03 02:41:00,21.6,14.3,30.25,NW,321,2.0,4.0,73,0.00,,,0.00,Wunderground v.1.15,2013-01-03 07:41:00,
2013-01-03 02:44:00,21.6,14.3,30.24,NW,311,2.0,4.0,73,0.00,,,0.00,Wunderground v.1.15,2013-01-03 07:44:00,
2013-01-03 02:45:00,21.6,14.3,30.24,NNW,336,1.0,4.0,73,0.00,,,0.00,Wunderground v.1.15,2013-01-03 07:45:00,
2013-01-03 02:46:00,21.5,14.2,30.24,North,355,1.0,4.0,73,0.00,,,0.00,Wunderground v.1.15,2013-01-03 07:46:00,
2013-01-03 02:47:00,21.5,14.2,30.24,NNW,347,1.0,4.0,73,0.00,,,0.00,Wunderground v.1.15,2013-01-03 07:47:00,
2013-01-03 02:51:00,21.5,14.2,30.25,NW,319,1.0,1.0,73,0.00,,,0.00,Wunderground v.1.15,2013-01-03 07:51:00,
2013-01-03 02:52:00,21.5,14.2,30.25,NNW,328,1.0,3.0,73,0.00,,,0.00,Wunderground v.1.15,2013-01-03 07:52:00,
2013-01-03 02:54:00,21.5,14.2,30.25,NW,325,1.0,4.0,73,0.00,,,0.00,Wunderground v.1.15,2013-01-03 07:54:00,
2013-01-03 02:57:00,21.6,14.3,30.24,NW,304,1.0,5.0,73,0.00,,,0.00,Wunderground v.1.15,2013-01-03 07:57:00,
2013-01-03 02:58:00,21.5,14.2,30.24,NW,309,1.0,5.0,73,0.00,,,0.00,Wunderground v.1.15,2013-01-03 07:58:00,
2013-01-03 03:00:00,21.5,14.2,30.25,NNW,327,1.0,1.0,73,0.00,,,0.00,Wunderground v.1.15,2013-01-03 08:00:00,
2013-01-03 03:01:00,21.5,14.2,30.25,NNW,337,1.0,8.0,73,0.00,,,0.00,Wunderground v.1.15,2013-01-03 08:01:00,
2013-01-03 03:07:00,21.5,14.2,30.25,NW,325,1.0,8.0,73,0.00,,,0.00,Wunderground v.1.15,2013-01-03 08:07:00,
2013-01-03 03:08:00,21.4,14.1,30.25,NW,325,1.0,8.0,73,0.00,,,0.00,Wunderground v.1.15,2013-01-03 08:08:00,
2013-01-03 03:12:00,21.4,14.1,30.25,NNW,338,1.0,3.0,73,0.00,,,0.00,Wunderground v.1.15,2013-01-03 08:12:00,
2013-01-03 03:13:00,21.4,14.1,30.25,NNW,336,1.0,3.0,73,0.00,,,0.00,Wunderground v.1.15,2013-01-03 08:13:00,
2013-01-03 03:18:00,21.3,14.0,30.25,NW,317,1.0,3.0,73,0.00,,,0.00,Wunderground v.1.15,2013-01-03 08:18:00,
2013-01-03 03:19:00,21.3,14.0,30.25,NW,319,1.0,3.0,73,0.00,,,0.00,Wunderground v.1.15,2013-01-03 08:19:00,
2013-01-03 03:22:00,21.2,13.9,30.24,NW,315,1.0,2.0,73,0.00,,,0.00,Wunderground v.1.15,2013-01-03 08:22:00,
2013-01-03 03:24:00,21.2,13.9,30.24,NW,305,1.0,3.0,73,0.00,,,0.00,Wunderground v.1.15,2013-01-03 08:24:00,
2013-01-03 03:26:00,21.2,13.9,30.24,NW,308,1.0,3.0,73,0.00,,,0.00,Wunderground v.1.15,2013-01-03 08:26:00,
2013-01-03 03:28:00,21.2,13.9,30.25,NW,319,2.0,3.0,73,0.00,,,0.00,Wunderground v.1.15,2013-01-03 08:28:00,
2013-01-03 03:30:00,21.3,14.0,30.24,NW,309,2.0,2.0,73,0.00,,,0.00,Wunderground v.1.15,2013-01-03 08:30:00,
2013-01-03 03:31:00,21.3,14.0,30.24,NW,323,2.0,9.0,73,0.00,,,0.00,Wunderground v.1.15,2013-01-03 08:31:00,
2013-01-03 03:32:00,21.3,14.0,30.24,NW,312,2.0,9.0,73,0.00,,,0.00,Wunderground v.1.15,2013-01-03 08:32:00,
2013-01-03 03:36:00,21.3,14.0,30.24,NW,323,2.0,9.0,73,0.00,,,0.00,Wunderground v.1.15,2013-01-03 08:36:00,
2013-01-03 03:38:00,21.3,14.0,30.24,West,271,2.0,9.0,73,0.00,,,0.00,Wunderground v.1.15,2013-01-03 08:38:00,
2013-01-03 03:40:00,21.3,14.0,30.24,NNW,334,2.0,2.0,73,0.00,,,0.00,Wunderground v.1.15,2013-01-03 08:40:00,
2013-01-03 03:41:00,21.3,14.0,30.24,NW,319,2.0,2.0,73,0.00,,,0.00,Wunderground v.1.15,2013-01-03 08:41:00,
2013-01-03 03:42:00,21.3,14.0,30.24,NW,319,2.0,2.0,73,0.00,,,0.00,Wunderground v.1.15,2013-01-03 08:42:00,
2013-01-03 03:43:00,21.2,13.9,30.24,WNW,299,2.0,3.0,73,0.00,,,0.00,Wunderground v.1.15,2013-01-03 08:43:00,
2013-01-03 03:48:00,21.2,13.9,30.24,NW,323,1.0,4.0,73,0.00,,,0.00,Wunderground v.1.15,2013-01-03 08:48:00,
2013-01-03 03:50:00,21.3,14.0,30.24,NNW,344,1.0,1.0,73,0.00,,,0.00,Wunderground v.1.15,2013-01-03 08:50:00,
2013-01-03 03:51:00,21.2,13.9,30.24,NW,322,1.0,2.0,73,0.00,,,0.00,Wunderground v.1.15,2013-01-03 08:51:00,
2013-01-03 03:57:00,21.2,13.9,30.24,NW,306,2.0,4.0,73,0.00,,,0.00,Wunderground v.1.15,2013-01-03 08:57:00,
2013-01-03 03:59:00,21.1,13.8,30.24,WNW,299,1.0,4.0,73,0.00,,,0.00,Wunderground v.1.15,2013-01-03 08:59:00,
2013-01-03 04:00:00,21.1,13.8,30.24,NW,318,1.0,1.0,73,0.00,,,0.00,Wunderground v.1.15,2013-01-03 09:00:00,
2013-01-03 04:02:00,21.0,13.7,30.24,North,355,1.0,7.0,73,0.00,,,0.00,Wunderground v.1.15,2013-01-03 09:02:00,
2013-01-03 04:06:00,20.9,13.6,30.24,NNW,327,1.0,7.0,73,0.00,,,0.00,Wunderground v.1.15,2013-01-03 09:06:00,
2013-01-03 04:09:00,20.9,13.6,30.24,NW,323,1.0,7.0,73,0.00,,,0.00,Wunderground v.1.15,2013-01-03 09:09:00,
2013-01-03 04:10:00,20.9,13.6,30.24,NW,323,1.0,1.0,73,0.00,,,0.00,Wunderground v.1.15,2013-01-03 09:10:00,
2013-01-03 04:16:00,20.7,13.4,30.25,NW,321,0.0,3.0,73,0.00,,,0.00,Wunderground v.1.15,2013-01-03 09:16:00,
2013-01-03 04:17:00,20.7,13.4,30.24,NW,321,0.0,3.0,73,0.00,,,0.00,Wunderground v.1.15,2013-01-03 09:17:00,
2013-01-03 04:19:00,20.7,13.4,30.24,NW,318,0.0,3.0,73,0.00,,,0.00,Wunderground v.1.15,2013-01-03 09:19:00,
2013-01-03 04:22:00,20.6,13.3,30.24,NW,319,0.0,0.0,73,0.00,,,0.00,Wunderground v.1.15,2013-01-03 09:22:00,
2013-01-03 04:24:00,20.6,13.3,30.24,NW,319,0.0,0.0,73,0.00,,,0.00,Wunderground v.1.15,2013-01-03 09:24:00,
2013-01-03 04:25:00,20.6,13.3,30.24,NW,320,0.0,0.0,73,0.00,,,0.00,Wunderground v.1.15,2013-01-03 09:25:00,
2013-01-03 04:28:00,20.6,13.3,30.23,NNW,331,0.0,0.0,73,0.00,,,0.00,Wunderground v.1.15,2013-01-03 09:28:00,
2013-01-03 04:30:00,20.5,13.2,30.23,NNW,333,0.0,0.0,73,0.00,,,0.00,Wunderground v.1.15,2013-01-03 09:30:00,
2013-01-03 04:31:00,20.5,13.2,30.24,NNW,333,0.0,9.0,73,0.00,,,0.00,Wunderground v.1.15,2013-01-03 09:31:00,
2013-01-03 04:35:00,20.4,13.1,30.24,NNW,343,0.0,9.0,73,0.00,,,0.00,Wunderground v.1.15,2013-01-03 09:35:00,
2013-01-03 04:36:00,20.4,13.1,30.23,NNW,343,0.0,9.0,73,0.00,,,0.00,Wunderground v.1.15,2013-01-03 09:36:00,
2013-01-03 04:38:00,20.4,13.4,30.24,NNW,344,0.0,9.0,74,0.00,,,0.00,Wunderground v.1.15,2013-01-03 09:38:00,
2013-01-03 04:41:00,20.4,13.4,30.24,NNW,342,0.0,0.0,74,0.00,,,0.00,Wunderground v.1.15,2013-01-03 09:41:00,
2013-01-03 04:42:00,20.4,13.4,30.24,NNW,337,0.0,0.0,74,0.00,,,0.00,Wunderground v.1.15,2013-01-03 09:42:00,
2013-01-03 04:46:00,20.4,13.4,30.24,NNW,338,0.0,0.0,74,0.00,,,0.00,Wunderground v.1.15,2013-01-03 09:46:00,
2013-01-03 04:47:00,20.4,13.4,30.24,NNW,336,0.0,0.0,74,0.00,,,0.00,Wunderground v.1.15,2013-01-03 09:47:00,
2013-01-03 04:48:00,20.4,13.4,30.24,NNW,340,0.0,0.0,74,0.00,,,0.00,Wunderground v.1.15,2013-01-03 09:48:00,
2013-01-03 04:49:00,20.4,13.4,30.24,NNW,340,0.0,0.0,74,0.00,,,0.00,Wunderground v.1.15,2013-01-03 09:49:00,
2013-01-03 04:52:00,20.3,13.3,30.24,NNW,340,0.0,0.0,74,0.00,,,0.00,Wunderground v.1.15,2013-01-03 09:52:00,
2013-01-03 04:57:00,20.3,13.3,30.24,NNW,340,0.0,0.0,74,0.00,,,0.00,Wunderground v.1.15,2013-01-03 09:57:00,
2013-01-03 04:58:00,20.3,13.3,30.24,NNW,337,0.0,0.0,74,0.00,,,0.00,Wunderground v.1.15,2013-01-03 09:58:00,
2013-01-03 04:59:00,20.3,13.3,30.24,NW,313,0.0,0.0,74,0.00,,,0.00,Wunderground v.1.15,2013-01-03 09:59:00,
2013-01-03 05:04:00,20.2,13.2,30.24,NW,326,0.0,7.0,74,0.00,,,0.00,Wunderground v.1.15,2013-01-03 10:04:00,
2013-01-03 05:08:00,20.3,13.3,30.24,NW,324,0.0,7.0,74,0.00,,,0.00,Wunderground v.1.15,2013-01-03 10:08:00,
2013-01-03 05:09:00,20.3,13.3,30.24,NNW,327,0.0,7.0,74,0.00,,,0.00,Wunderground v.1.15,2013-01-03 10:09:00,
2013-01-03 05:10:00,20.3,13.3,30.23,NW,314,0.0,0.0,74,0.00,,,0.00,Wunderground v.1.15,2013-01-03 10:10:00,
2013-01-03 05:14:00,20.3,13.3,30.23,NW,324,0.0,0.0,74,0.00,,,0.00,Wunderground v.1.15,2013-01-03 10:14:00,
2013-01-03 05:16:00,20.3,13.3,30.23,NW,324,0.0,0.0,74,0.00,,,0.00,Wunderground v.1.15,2013-01-03 10:16:00,
2013-01-03 05:17:00,20.2,13.2,30.23,NW,323,0.0,0.0,74,0.00,,,0.00,Wunderground v.1.15,2013-01-03 10:17:00,
2013-01-03 05:20:00,20.2,13.2,30.24,WNW,290,0.0,0.0,74,0.00,,,0.00,Wunderground v.1.15,2013-01-03 10:20:00,
2013-01-03 05:23:00,20.1,13.1,30.24,NW,318,0.0,0.0,74,0.00,,,0.00,Wunderground v.1.15,2013-01-03 10:23:00,
2013-01-03 05:24:00,20.1,13.1,30.24,NW,317,0.0,0.0,74,0.00,,,0.00,Wunderground v.1.15,2013-01-03 10:24:00,
2013-01-03 05:26:00,20.1,13.1,30.24,NW,317,0.0,0.0,74,0.00,,,0.00,Wunderground v.1.15,2013-01-03 10:26:00,
2013-01-03 05:27:00,20.0,13.0,30.24,NW,318,0.0,1.0,74,0.00,,,0.00,Wunderground v.1.15,2013-01-03 10:27:00,
2013-01-03 05:29:00,20.1,13.1,30.24,NNW,327,1.0,2.0,74,0.00,,,0.00,Wunderground v.1.15,2013-01-03 10:29:00,
2013-01-03 05:32:00,20.3,13.3,30.24,NW,308,1.0,3.0,74,0.00,,,0.00,Wunderground v.1.15,2013-01-03 10:32:00,
2013-01-03 05:34:00,20.2,13.2,30.24,NW,308,1.0,3.0,74,0.00,,,0.00,Wunderground v.1.15,2013-01-03 10:34:00,
2013-01-03 05:37:00,20.2,13.2,30.24,NW,309,1.0,3.0,74,0.00,,,0.00,Wunderground v.1.15,2013-01-03 10:37:00,
2013-01-03 05:39:00,20.2,13.2,30.24,NW,311,0.0,3.0,74,0.00,,,0.00,Wunderground v.1.15,2013-01-03 10:39:00,
2013-01-03 05:43:00,20.1,13.1,30.24,NNW,344,0.0,2.0,74,0.00,,,0.00,Wunderground v.1.15,2013-01-03 10:43:00,
2013-01-03 05:44:00,20.1,13.1,30.24,NW,314,0.0,2.0,74,0.00,,,0.00,Wunderground v.1.15,2013-01-03 10:44:00,
2013-01-03 05:47:00,20.0,13.0,30.24,NNW,334,0.0,2.0,74,0.00,,,0.00,Wunderground v.1.15,2013-01-03 10:47:00,
2013-01-03 05:48:00,20.0,13.0,30.24,NNW,334,0.0,2.0,74,0.00,,,0.00,Wunderground v.1.15,2013-01-03 10:48:00,
2013-01-03 05:51:00,20.0,13.0,30.24,NW,317,0.0,0.0,74,0.00,,,0.00,Wunderground v.1.15,2013-01-03 10:51:00,
2013-01-03 05:54:00,20.0,13.0,30.24,NW,323,0.0,1.0,74,0.00,,,0.00,Wunderground v.1.15,2013-01-03 10:54:00,
2013-01-03 05:55:00,20.0,13.0,30.24,NW,323,0.0,1.0,74,0.00,,,0.00,Wunderground v.1.15,2013-01-03 10:55:00,
2013-01-03 05:58:00,19.9,12.9,30.24,NW,323,0.0,1.0,74,0.00,,,0.00,Wunderground v.1.15,2013-01-03 10:58:00,
2013-01-03 05:59:00,19.9,12.9,30.24,NW,323,0.0,1.0,74,0.00,,,0.00,Wunderground v.1.15,2013-01-03 10:59:00,
2013-01-03 06:00:00,19.9,12.9,30.24,NW,323,0.0,0.0,74,0.00,,,0.00,Wunderground v.1.15,2013-01-03 11:00:00,
2013-01-03 06:02:00,19.8,12.8,30.24,NW,323,0.0,5.0,74,0.00,,,0.00,Wunderground v.1.15,2013-01-03 11:02:00,
2013-01-03 06:06:00,19.8,12.8,30.25,NW,322,0.0,5.0,74,0.00,,,0.00,Wunderground v.1.15,2013-01-03 11:06:00,
2013-01-03 06:08:00,19.7,12.8,30.25,NW,316,0.0,5.0,74,0.00,,,0.00,Wunderground v.1.15,2013-01-03 11:08:00,
2013-01-03 06:09:00,19.7,12.8,30.25,NW,315,0.0,5.0,74,0.00,,,0.00,Wunderground v.1.15,2013-01-03 11:09:00,
2013-01-03 06:11:00,19.7,12.8,30.25,NNW,334,0.0,0.0,74,0.00,,,0.00,Wunderground v.1.15,2013-01-03 11:11:00,
2013-01-03 06:13:00,19.7,12.8,30.25,NNW,334,0.0,0.0,74,0.00,,,0.00,Wunderground v.1.15,2013-01-03 11:13:00,
2013-01-03 06:14:00,19.7,12.8,30.25,NNW,334,0.0,0.0,74,0.00,,,0.00,Wunderground v.1.15,2013-01-03 11:14:00,
2013-01-03 06:16:00,19.7,12.8,30.25,NNW,334,0.0,0.0,74,0.00,,,0.00,Wunderground v.1.15,2013-01-03 11:16:00,
2013-01-03 06:22:00,19.7,13.1,30.25,NW,323,0.0,0.0,75,0.00,,,0.00,Wunderground v.1.15,2013-01-03 11:22:00,
2013-01-03 06:24:00,19.7,13.1,30.25,NW,325,0.0,0.0,75,0.00,,,0.00,Wunderground v.1.15,2013-01-03 11:24:00,
2013-01-03 06:28:00,19.7,13.1,30.25,NW,317,0.0,2.0,75,0.00,,,0.00,Wunderground v.1.15,2013-01-03 11:28:00,
2013-01-03 06:30:00,19.7,12.8,30.25,NW,317,0.0,0.0,74,0.00,,,0.00,Wunderground v.1.15,2013-01-03 11:30:00,
2013-01-03 06:32:00,19.7,12.8,30.25,NW,318,0.0,5.0,74,0.00,,,0.00,Wunderground v.1.15,2013-01-03 11:32:00,
2013-01-03 06:35:00,19.7,13.1,30.25,NW,326,0.0,5.0,75,0.00,,,0.00,Wunderground v.1.15,2013-01-03 11:35:00,
2013-01-03 06:37:00,19.7,13.1,30.25,NW,326,0.0,5.0,75,0.00,,,0.00,Wunderground v.1.15,2013-01-03 11:37:00,
2013-01-03 06:38:00,19.7,13.1,30.25,NW,326,0.0,5.0,75,0.00,,,0.00,Wunderground v.1.15,2013-01-03 11:38:00,
2013-01-03 06:40:00,19.7,13.1,30.25,NNW,327,0.0,0.0,75,0.00,,,0.00,Wunderground v.1.15,2013-01-03 11:40:00,
2013-01-03 06:42:00,19.6,13.0,30.25,NW,311,0.0,0.0,75,0.00,,,0.00,Wunderground v.1.15,2013-01-03 11:42:00,
2013-01-03 06:45:00,19.6,13.0,30.25,NW,311,0.0,0.0,75,0.00,,,0.00,Wunderground v.1.15,2013-01-03 11:45:00,
2013-01-03 06:48:00,19.6,13.0,30.24,NW,311,0.0,0.0,75,0.00,,,0.00,Wunderground v.1.15,2013-01-03 11:48:00,
2013-01-03 06:50:00,19.7,13.1,30.24,NW,323,0.0,0.0,75,0.00,,,0.00,Wunderground v.1.15,2013-01-03 11:50:00,
2013-01-03 06:54:00,19.7,13.1,30.24,NNW,329,0.0,0.0,75,0.00,,,0.00,Wunderground v.1.15,2013-01-03 11:54:00,
2013-01-03 06:55:00,19.7,13.1,30.25,NNW,329,0.0,0.0,75,0.00,,,0.00,Wunderground v.1.15,2013-01-03 11:55:00,
2013-01-03 06:56:00,19.7,13.1,30.25,NNW,329,0.0,0.0,75,0.00,,,0.00,Wunderground v.1.15,2013-01-03 11:56:00,
2013-01-03 06:58:00,19.7,13.1,30.25,NNW,329,0.0,0.0,75,0.00,,,0.00,Wunderground v.1.15,2013-01-03 11:58:00,
2013-01-03 07:01:00,19.7,13.1,30.25,NNW,329,0.0,4.0,75,0.00,,,0.00,Wunderground v.1.15,2013-01-03 12:01:00,
2013-01-03 07:02:00,19.7,13.1,30.25,NNW,329,0.0,4.0,75,0.00,,,0.00,Wunderground v.1.15,2013-01-03 12:02:00,
2013-01-03 07:03:00,19.7,13.1,30.25,NNW,329,0.0,4.0,75,0.00,,,0.00,Wunderground v.1.15,2013-01-03 12:03:00,
2013-01-03 07:07:00,19.5,12.9,30.25,NNW,329,0.0,4.0,75,0.00,,,0.00,Wunderground v.1.15,2013-01-03 12:07:00,
2013-01-03 07:10:00,19.4,12.8,30.25,NNW,329,0.0,0.0,75,0.00,,,0.00,Wunderground v.1.15,2013-01-03 12:10:00,
2013-01-03 07:11:00,19.4,12.8,30.25,NNW,329,0.0,0.0,75,0.00,,,0.00,Wunderground v.1.15,2013-01-03 12:11:00,
2013-01-03 07:13:00,19.3,12.7,30.25,NNW,329,0.0,0.0,75,0.00,,,0.00,Wunderground v.1.15,2013-01-03 12:13:00,
2013-01-03 07:16:00,19.3,12.7,30.24,NNW,329,0.0,0.0,75,0.00,,,0.00,Wunderground v.1.15,2013-01-03 12:16:00,
2013-01-03 07:17:00,19.3,12.7,30.25,NNW,329,0.0,0.0,75,0.00,,,0.00,Wunderground v.1.15,2013-01-03 12:17:00,
2013-01-03 07:19:00,19.2,12.6,30.25,NNW,329,0.0,0.0,75,0.00,,,0.00,Wunderground v.1.15,2013-01-03 12:19:00,
2013-01-03 07:23:00,19.2,12.6,30.25,NNW,329,0.0,0.0,75,0.00,,,0.00,Wunderground v.1.15,2013-01-03 12:23:00,
2013-01-03 07:24:00,19.3,12.7,30.25,NNW,329,0.0,0.0,75,0.00,,,0.00,Wunderground v.1.15,2013-01-03 12:24:00,
2013-01-03 07:28:00,19.3,12.7,30.25,NNW,329,0.0,0.0,75,0.00,,,0.00,Wunderground v.1.15,2013-01-03 12:28:00,
2013-01-03 07:30:00,19.3,12.7,30.25,NNW,329,0.0,0.0,75,0.00,,,0.00,Wunderground v.1.15,2013-01-03 12:30:00,
2013-01-03 07:32:00,19.3,12.7,30.25,NNW,329,0.0,3.0,75,0.00,,,0.00,Wunderground v.1.15,2013-01-03 12:32:00,
2013-01-03 07:33:00,19.4,12.8,30.25,NNW,329,0.0,3.0,75,0.00,,,0.00,Wunderground v.1.15,2013-01-03 12:33:00,
2013-01-03 07:38:00,19.3,12.7,30.25,NNW,329,0.0,3.0,75,0.00,,,0.00,Wunderground v.1.15,2013-01-03 12:38:00,
2013-01-03 07:39:00,19.3,12.7,30.25,NNW,329,0.0,3.0,75,0.00,,,0.00,Wunderground v.1.15,2013-01-03 12:39:00,
2013-01-03 07:40:00,19.3,12.7,30.25,NNW,329,0.0,0.0,75,0.00,,,0.00,Wunderground v.1.15,2013-01-03 12:40:00,
2013-01-03 07:42:00,19.2,12.6,30.25,NNW,329,0.0,0.0,75,0.00,,,0.00,Wunderground v.1.15,2013-01-03 12:42:00,
2013-01-03 07:44:00,19.1,12.5,30.25,NNW,329,0.0,0.0,75,0.00,,,0.00,Wunderground v.1.15,2013-01-03 12:44:00,
2013-01-03 07:45:00,19.1,12.5,30.25,NNW,329,0.0,0.0,75,0.00,,,0.00,Wunderground v.1.15,2013-01-03 12:45:00,
2013-01-03 07:50:00,19.0,12.7,30.25,NNW,329,0.0,0.0,76,0.00,,,0.00,Wunderground v.1.15,2013-01-03 12:50:00,
2013-01-03 07:51:00,19.0,12.7,30.25,NNW,329,0.0,0.0,76,0.00,,,0.00,Wunderground v.1.15,2013-01-03 12:51:00,
2013-01-03 07:52:00,19.0,12.7,30.25,NNW,329,0.0,0.0,76,0.00,,,0.00,Wunderground v.1.15,2013-01-03 12:52:00,
2013-01-03 07:55:00,18.9,12.6,30.25,NNW,329,0.0,0.0,76,0.00,,,0.00,Wunderground v.1.15,2013-01-03 12:55:00,
2013-01-03 07:57:00,18.9,12.6,30.25,NNW,329,0.0,0.0,76,0.00,,,0.00,Wunderground v.1.15,2013-01-03 12:57:00,
2013-01-03 07:58:00,18.9,12.6,30.25,NNW,329,0.0,0.0,76,0.00,,,0.00,Wunderground v.1.15,2013-01-03 12:58:00,
2013-01-03 08:01:00,19.0,12.7,30.25,NNW,329,0.0,0.0,76,0.00,,,0.00,Wunderground v.1.15,2013-01-03 13:01:00,
2013-01-03 08:02:00,19.0,12.7,30.25,NNW,329,0.0,0.0,76,0.00,,,0.00,Wunderground v.1.15,2013-01-03 13:02:00,
2013-01-03 08:04:00,18.9,12.6,30.25,NNW,329,0.0,0.0,76,0.00,,,0.00,Wunderground v.1.15,2013-01-03 13:04:00,
2013-01-03 08:05:00,18.9,12.6,30.25,NNW,329,0.0,0.0,76,0.00,,,0.00,Wunderground v.1.15,2013-01-03 13:05:00,
2013-01-03 08:07:00,18.9,12.6,30.25,NNW,329,0.0,0.0,76,0.00,,,0.00,Wunderground v.1.15,2013-01-03 13:07:00,
2013-01-03 08:08:00,18.9,12.6,30.25,NNW,329,0.0,0.0,76,0.00,,,0.00,Wunderground v.1.15,2013-01-03 13:08:00,
2013-01-03 08:11:00,18.9,12.6,30.25,NNW,329,0.0,0.0,76,0.00,,,0.00,Wunderground v.1.15,2013-01-03 13:11:00,
2013-01-03 08:12:00,18.9,12.6,30.25,NNW,329,0.0,0.0,76,0.00,,,0.00,Wunderground v.1.15,2013-01-03 13:12:00,
2013-01-03 08:15:00,18.9,12.6,30.26,NNW,329,0.0,0.0,76,0.00,,,0.00,Wunderground v.1.15,2013-01-03 13:15:00,
2013-01-03 08:16:00,18.9,12.6,30.26,NNW,329,0.0,0.0,76,0.00,,,0.00,Wunderground v.1.15,2013-01-03 13:16:00,
2013-01-03 08:17:00,18.9,12.6,30.26,NNW,329,0.0,0.0,76,0.00,,,0.00,Wunderground v.1.15,2013-01-03 13:17:00,
2013-01-03 08:18:00,18.9,12.6,30.26,NNW,329,0.0,0.0,76,0.00,,,0.00,Wunderground v.1.15,2013-01-03 13:18:00,
2013-01-03 08:22:00,18.8,12.5,30.26,NNW,329,0.0,0.0,76,0.00,,,0.00,Wunderground v.1.15,2013-01-03 13:22:00,
2013-01-03 08:23:00,18.8,12.5,30.26,NNW,329,0.0,0.0,76,0.00,,,0.00,Wunderground v.1.15,2013-01-03 13:23:00,
2013-01-03 08:24:00,18.8,12.5,30.26,NNW,329,0.0,0.0,76,0.00,,,0.00,Wunderground v.1.15,2013-01-03 13:24:00,
2013-01-03 08:25:00,18.8,12.5,30.26,NNW,329,0.0,0.0,76,0.00,,,0.00,Wunderground v.1.15,2013-01-03 13:25:00,
2013-01-03 08:30:00,18.9,12.9,30.26,NNW,329,0.0,0.0,77,0.00,,,0.00,Wunderground v.1.15,2013-01-03 13:30:00,
2013-01-03 08:34:00,19.1,13.1,30.26,NNW,329,0.0,0.0,77,0.00,,,0.00,Wunderground v.1.15,2013-01-03 13:34:00,
2013-01-03 08:35:00,19.1,13.1,30.26,NNW,329,0.0,0.0,77,0.00,,,0.00,Wunderground v.1.15,2013-01-03 13:35:00,
2013-01-03 08:37:00,19.2,12.9,30.26,NNW,329,0.0,0.0,76,0.00,,,0.00,Wunderground v.1.15,2013-01-03 13:37:00,
2013-01-03 08:38:00,19.2,12.9,30.26,NNW,329,0.0,0.0,76,0.00,,,0.00,Wunderground v.1.15,2013-01-03 13:38:00,
2013-01-03 08:39:00,19.3,13.0,30.26,NNW,329,0.0,0.0,76,0.00,,,0.00,Wunderground v.1.15,2013-01-03 13:39:00,
2013-01-03 08:43:00,19.5,13.2,30.27,NNW,329,0.0,0.0,76,0.00,,,0.00,Wunderground v.1.15,2013-01-03 13:43:00,
2013-01-03 08:44:00,19.5,13.2,30.27,NNW,329,0.0,0.0,76,0.00,,,0.00,Wunderground v.1.15,2013-01-03 13:44:00,
2013-01-03 08:45:00,19.6,13.3,30.26,NNW,329,0.0,0.0,76,0.00,,,0.00,Wunderground v.1.15,2013-01-03 13:45:00,
2013-01-03 08:47:00,19.7,13.4,30.26,NNW,329,0.0,0.0,76,0.00,,,0.00,Wunderground v.1.15,2013-01-03 13:47:00,
2013-01-03 08:52:00,19.7,13.4,30.26,NNW,328,0.0,0.0,76,0.00,,,0.00,Wunderground v.1.15,2013-01-03 13:52:00,
2013-01-03 08:53:00,19.7,13.4,30.27,NNW,328,0.0,0.0,76,0.00,,,0.00,Wunderground v.1.15,2013-01-03 13:53:00,
2013-01-03 08:56:00,19.8,13.5,30.27,NNW,327,0.0,0.0,76,0.00,,,0.00,Wunderground v.1.15,2013-01-03 13:56:00,
2013-01-03 08:59:00,19.9,13.6,30.27,NNW,327,0.0,0.0,76,0.00,,,0.00,Wunderground v.1.15,2013-01-03 13:59:00,
2013-01-03 09:01:00,20.0,13.6,30.27,NNW,327,0.0,0.0,76,0.00,,,0.00,Wunderground v.1.15,2013-01-03 14:01:00,
2013-01-03 09:02:00,20.1,13.7,30.27,NNW,328,0.0,0.0,76,0.00,,,0.00,Wunderground v.1.15,2013-01-03 14:02:00,
2013-01-03 09:06:00,20.2,13.8,30.27,NNW,327,0.0,0.0,76,0.00,,,0.00,Wunderground v.1.15,2013-01-03 14:06:00,
2013-01-03 09:07:00,20.2,13.8,30.27,NW,326,0.0,0.0,76,0.00,,,0.00,Wunderground v.1.15,2013-01-03 14:07:00,
2013-01-03 09:08:00,20.2,13.8,30.27,NW,315,0.0,0.0,76,0.00,,,0.00,Wunderground v.1.15,2013-01-03 14:08:00,
2013-01-03 09:11:00,20.2,13.8,30.27,NW,306,0.0,1.0,76,0.00,,,0.00,Wunderground v.1.15,2013-01-03 14:11:00,
2013-01-03 09:12:00,20.2,13.8,30.27,NW,306,0.0,1.0,76,0.00,,,0.00,Wunderground v.1.15,2013-01-03 14:12:00,
2013-01-03 09:14:00,20.2,13.8,30.27,NW,306,0.0,1.0,76,0.00,,,0.00,Wunderground v.1.15,2013-01-03 14:14:00,
2013-01-03 09:15:00,20.3,13.9,30.27,WNW,302,0.0,1.0,76,0.00,,,0.00,Wunderground v.1.15,2013-01-03 14:15:00,
2013-01-03 09:19:00,20.2,13.8,30.27,WNW,302,0.0,1.0,76,0.00,,,0.00,Wunderground v.1.15,2013-01-03 14:19:00,
2013-01-03 09:21:00,20.2,13.8,30.27,WNW,296,0.0,1.0,76,0.00,,,0.00,Wunderground v.1.15,2013-01-03 14:21:00,
2013-01-03 09:23:00,20.2,13.8,30.27,WNW,296,0.0,1.0,76,0.00,,,0.00,Wunderground v.1.15,2013-01-03 14:23:00,
2013-01-03 09:24:00,20.2,13.8,30.27,WNW,295,0.0,1.0,76,0.00,,,0.00,Wunderground v.1.15,2013-01-03 14:24:00,
2013-01-03 09:27:00,20.2,13.8,30.27,WNW,295,0.0,1.0,76,0.00,,,0.00,Wunderground v.1.15,2013-01-03 14:27:00,
2013-01-03 09:29:00,20.3,13.9,30.27,WNW,296,0.0,1.0,76,0.00,,,0.00,Wunderground v.1.15,2013-01-03 14:29:00,
2013-01-03 09:32:00,20.3,13.9,30.27,West,272,0.0,3.0,76,0.00,,,0.00,Wunderground v.1.15,2013-01-03 14:32:00,
2013-01-03 09:34:00,20.4,13.7,30.27,West,275,0.0,3.0,75,0.00,,,0.00,Wunderground v.1.15,2013-01-03 14:34:00,
2013-01-03 09:38:00,20.5,13.8,30.27,West,273,0.0,3.0,75,0.00,,,0.00,Wunderground v.1.15,2013-01-03 14:38:00,
2013-01-03 09:41:00,20.6,13.9,30.27,West,274,0.0,0.0,75,0.00,,,0.00,Wunderground v.1.15,2013-01-03 14:41:00,
2013-01-03 09:43:00,20.6,13.9,30.27,West,273,0.0,1.0,75,0.00,,,0.00,Wunderground v.1.15,2013-01-03 14:43:00,
2013-01-03 09:44:00,20.7,14.0,30.27,West,276,0.0,1.0,75,0.00,,,0.00,Wunderground v.1.15,2013-01-03 14:44:00,
2013-01-03 09:45:00,20.7,14.0,30.27,West,277,0.0,1.0,75,0.00,,,0.00,Wunderground v.1.15,2013-01-03 14:45:00,
2013-01-03 09:50:00,20.9,14.5,30.27,WNW,291,0.0,0.0,76,0.00,,,0.00,Wunderground v.1.15,2013-01-03 14:50:00,
2013-01-03 09:51:00,20.9,14.5,30.27,WNW,291,0.0,0.0,76,0.00,,,0.00,Wunderground v.1.15,2013-01-03 14:51:00,
2013-01-03 09:56:00,21.0,14.3,30.27,West,279,0.0,0.0,75,0.00,,,0.00,Wunderground v.1.15,2013-01-03 14:56:00,
2013-01-03 09:58:00,21.1,14.4,30.27,West,277,0.0,0.0,75,0.00,,,0.00,Wunderground v.1.15,2013-01-03 14:58:00,
2013-01-03 10:00:00,21.2,14.5,30.27,West,263,0.0,1.0,75,0.00,,,0.00,Wunderground v.1.15,2013-01-03 15:00:00,
2013-01-03 10:02:00,21.2,14.5,30.27,West,263,0.0,2.0,75,0.00,,,0.00,Wunderground v.1.15,2013-01-03 15:02:00,
2013-01-03 10:04:00,21.3,14.6,30.27,WSW,246,1.0,3.0,75,0.00,,,0.00,Wunderground v.1.15,2013-01-03 15:04:00,
2013-01-03 10:06:00,21.3,14.6,30.27,WSW,254,1.0,3.0,75,0.00,,,0.00,Wunderground v.1.15,2013-01-03 15:06:00,
2013-01-03 10:08:00,21.4,14.7,30.26,WNW,295,1.0,3.0,75,0.00,,,0.00,Wunderground v.1.15,2013-01-03 15:08:00,
2013-01-03 10:10:00,21.5,14.8,30.27,WNW,287,1.0,1.0,75,0.00,,,0.00,Wunderground v.1.15,2013-01-03 15:10:00,
2013-01-03 10:11:00,21.5,14.8,30.27,WNW,287,1.0,1.0,75,0.00,,,0.00,Wunderground v.1.15,2013-01-03 15:11:00,
2013-01-03 10:15:00,21.7,15.0,30.27,WNW,282,0.0,1.0,75,0.00,,,0.00,Wunderground v.1.15,2013-01-03 15:15:00,
2013-01-03 10:18:00,22.0,15.3,30.27,West,277,0.0,2.0,75,0.00,,,0.00,Wunderground v.1.15,2013-01-03 15:18:00,
2013-01-03 10:20:00,22.1,15.1,30.27,WSW,256,0.0,0.0,74,0.00,,,0.00,Wunderground v.1.15,2013-01-03 15:20:00,
2013-01-03 10:25:00,22.5,15.8,30.26,WNW,295,1.0,1.0,75,0.00,,,0.00,Wunderground v.1.15,2013-01-03 15:25:00,
2013-01-03 10:27:00,22.7,16.0,30.27,WNW,282,1.0,2.0,75,0.00,,,0.00,Wunderground v.1.15,2013-01-03 15:27:00,
2013-01-03 10:28:00,22.8,15.8,30.27,West,280,1.0,3.0,74,0.00,,,0.00,Wunderground v.1.15,2013-01-03 15:28:00,
2013-01-03 10:30:00,22.9,15.8,30.27,West,280,1.0,1.0,74,0.00,,,0.00,Wunderground v.1.15,2013-01-03 15:30:00,
2013-01-03 10:32:00,23.0,15.9,30.27,West,274,1.0,3.0,74,0.00,,,0.00,Wunderground v.1.15,2013-01-03 15:32:00,
2013-01-03 10:35:00,23.2,16.1,30.26,WNW,298,1.0,3.0,74,0.00,,,0.00,Wunderground v.1.15,2013-01-03 15:35:00,
2013-01-03 10:36:00,23.1,16.0,30.26,WNW,288,1.0,3.0,74,0.00,,,0.00,Wunderground v.1.15,2013-01-03 15:36:00,
2013-01-03 10:38:00,23.2,15.8,30.26,WNW,287,1.0,3.0,73,0.00,,,0.00,Wunderground v.1.15,2013-01-03 15:38:00,
2013-01-03 10:41:00,23.2,15.8,30.26,WNW,300,1.0,4.0,73,0.00,,,0.00,Wunderground v.1.15,2013-01-03 15:41:00,
2013-01-03 10:43:00,23.2,15.8,30.26,WNW,303,1.0,4.0,73,0.00,,,0.00,Wunderground v.1.15,2013-01-03 15:43:00,
2013-01-03 10:44:00,23.2,15.8,30.26,NW,304,1.0,4.0,73,0.00,,,0.00,Wunderground v.1.15,2013-01-03 15:44:00,
2013-01-03 10:46:00,23.2,15.8,30.26,WNW,290,1.0,4.0,73,0.00,,,0.00,Wunderground v.1.15,2013-01-03 15:46:00,
2013-01-03 10:51:00,23.5,16.4,30.26,West,275,1.0,1.0,74,0.00,,,0.00,Wunderground v.1.15,2013-01-03 15:51:00,
2013-01-03 10:52:00,23.5,16.4,30.26,West,279,1.0,1.0,74,0.00,,,0.00,Wunderground v.1.15,2013-01-03 15:52:00,
2013-01-03 10:55:00,23.8,16.7,30.26,WNW,284,0.0,2.0,74,0.00,,,0.00,Wunderground v.1.15,2013-01-03 15:55:00,
2013-01-03 10:58:00,23.9,16.8,30.26,West,281,0.0,2.0,74,0.00,,,0.00,Wunderground v.1.15,2013-01-03 15:58:00,
2013-01-03 11:00:00,23.9,16.8,30.26,WSW,254,0.0,0.0,74,0.00,,,0.00,Wunderground v.1.15,2013-01-03 16:00:00,
2013-01-03 11:01:00,23.9,16.8,30.26,West,269,0.0,4.0,74,0.00,,,0.00,Wunderground v.1.15,2013-01-03 16:01:00,
2013-01-03 11:02:00,24.0,16.9,30.26,West,275,0.0,4.0,74,0.00,,,0.00,Wunderground v.1.15,2013-01-03 16:02:00,
2013-01-03 11:07:00,24.0,16.9,30.25,West,280,1.0,4.0,74,0.00,,,0.00,Wunderground v.1.15,2013-01-03 16:07:00,
2013-01-03 11:08:00,24.0,16.6,30.25,WNW,284,1.0,4.0,73,0.00,,,0.00,Wunderground v.1.15,2013-01-03 16:08:00,
2013-01-03 11:09:00,24.1,16.7,30.25,WNW,283,1.0,4.0,73,0.00,,,0.00,Wunderground v.1.15,2013-01-03 16:09:00,
2013-01-03 11:14:00,24.3,16.9,30.25,West,260,2.0,4.0,73,0.00,,,0.00,Wunderground v.1.15,2013-01-03 16:14:00,
2013-01-03 11:15:00,24.3,16.9,30.25,WNW,287,2.0,4.0,73,0.00,,,0.00,Wunderground v.1.15,2013-01-03 16:15:00,
2013-01-03 11:17:00,24.3,16.9,30.25,WNW,290,2.0,4.0,73,0.00,,,0.00,Wunderground v.1.15,2013-01-03 16:17:00,
2013-01-03 11:18:00,24.3,16.9,30.25,WNW,285,2.0,4.0,73,0.00,,,0.00,Wunderground v.1.15,2013-01-03 16:18:00,
2013-01-03 11:22:00,24.3,16.9,30.25,West,277,2.0,4.0,73,0.00,,,0.00,Wunderground v.1.15,2013-01-03 16:22:00,
2013-01-03 11:23:00,24.3,17.2,30.25,WSW,258,2.0,4.0,74,0.00,,,0.00,Wunderground v.1.15,2013-01-03 16:23:00,
2013-01-03 11:24:00,24.3,16.9,30.25,NW,309,2.0,4.0,73,0.00,,,0.00,Wunderground v.1.15,2013-01-03 16:24:00,
2013-01-03 11:25:00,24.3,17.2,30.24,NW,306,2.0,4.0,74,0.00,,,0.00,Wunderground v.1.15,2013-01-03 16:25:00,
2013-01-03 11:29:00,24.5,17.1,30.24,WNW,293,2.0,4.0,73,0.00,,,0.00,Wunderground v.1.15,2013-01-03 16:29:00,
2013-01-03 11:32:00,24.7,17.3,30.24,West,270,2.0,4.0,73,0.00,,,0.00,Wunderground v.1.15,2013-01-03 16:32:00,
2013-01-03 11:33:00,24.8,17.4,30.24,West,260,2.0,4.0,73,0.00,,,0.00,Wunderground v.1.15,2013-01-03 16:33:00,
2013-01-03 11:35:00,24.7,17.3,30.24,NW,319,2.0,5.0,73,0.00,,,0.00,Wunderground v.1.15,2013-01-03 16:35:00,
2013-01-03 11:37:00,24.7,17.3,30.24,NW,319,2.0,5.0,73,0.00,,,0.00,Wunderground v.1.15,2013-01-03 16:37:00,
2013-01-03 11:39:00,24.7,17.3,30.24,WNW,288,2.0,5.0,73,0.00,,,0.00,Wunderground v.1.15,2013-01-03 16:39:00,
2013-01-03 11:42:00,24.7,17.3,30.24,NW,309,2.0,5.0,73,0.00,,,0.00,Wunderground v.1.15,2013-01-03 16:42:00,
2013-01-03 11:44:00,24.7,17.3,30.24,NW,304,3.0,5.0,73,0.00,,,0.00,Wunderground v.1.15,2013-01-03 16:44:00,
2013-01-03 11:47:00,24.6,17.2,30.23,West,280,3.0,5.0,73,0.00,,,0.00,Wunderground v.1.15,2013-01-03 16:47:00,
2013-01-03 11:49:00,24.6,17.2,30.23,West,272,3.0,5.0,73,0.00,,,0.00,Wunderground v.1.15,2013-01-03 16:49:00,
2013-01-03 11:50:00,24.6,17.2,30.23,West,275,2.0,2.0,73,0.00,,,0.00,Wunderground v.1.15,2013-01-03 16:50:00,
2013-01-03 11:55:00,24.9,17.5,30.23,WNW,298,2.0,5.0,73,0.00,,,0.00,Wunderground v.1.15,2013-01-03 16:55:00,
2013-01-03 11:58:00,25.1,17.3,30.23,WNW,288,2.0,5.0,72,0.00,,,0.00,Wunderground v.1.15,2013-01-03 16:58:00,
2013-01-03 11:59:00,25.1,17.3,30.23,West,277,2.0,5.0,72,0.00,,,0.00,Wunderground v.1.15,2013-01-03 16:59:00,
2013-01-03 12:00:00,25.2,17.8,30.23,WNW,288,2.0,2.0,73,0.00,,,0.00,Wunderground v.1.15,2013-01-03 17:00:00,
2013-01-03 12:01:00,25.2,17.4,30.23,WNW,282,3.0,3.0,72,0.00,,,0.00,Wunderground v.1.15,2013-01-03 17:01:00,
2013-01-03 12:04:00,25.4,17.6,30.22,WNW,286,3.0,6.0,72,0.00,,,0.00,Wunderground v.1.15,2013-01-03 17:04:00,
2013-01-03 12:08:00,25.7,17.9,30.22,WNW,286,2.0,6.0,72,0.00,,,0.00,Wunderground v.1.15,2013-01-03 17:08:00,
2013-01-03 12:11:00,25.8,17.7,30.22,WNW,287,2.0,3.0,71,0.00,,,0.00,Wunderground v.1.15,2013-01-03 17:11:00,
2013-01-03 12:13:00,25.9,18.1,30.21,WNW,291,2.0,3.0,72,0.00,,,0.00,Wunderground v.1.15,2013-01-03 17:13:00,
2013-01-03 12:14:00,25.9,17.8,30.21,WNW,292,2.0,3.0,71,0.00,,,0.00,Wunderground v.1.15,2013-01-03 17:14:00,
2013-01-03 12:15:00,26.0,17.9,30.21,West,267,2.0,3.0,71,0.00,,,0.00,Wunderground v.1.15,2013-01-03 17:15:00,
2013-01-03 12:17:00,26.1,17.6,30.21,West,265,2.0,4.0,70,0.00,,,0.00,Wunderground v.1.15,2013-01-03 17:17:00,
2013-01-03 12:18:00,26.1,17.6,30.21,West,275,2.0,4.0,70,0.00,,,0.00,Wunderground v.1.15,2013-01-03 17:18:00,
2013-01-03 12:20:00,26.1,17.6,30.20,WNW,292,2.0,2.0,70,0.00,,,0.00,Wunderground v.1.15,2013-01-03 17:20:00,
2013-01-03 12:24:00,26.4,17.9,30.20,NW,304,2.0,5.0,70,0.00,,,0.00,Wunderground v.1.15,2013-01-03 17:24:00,
2013-01-03 12:25:00,26.4,17.9,30.20,WNW,290,3.0,5.0,70,0.00,,,0.00,Wunderground v.1.15,2013-01-03 17:25:00,
2013-01-03 12:28:00,26.5,17.7,30.20,WNW,288,2.0,6.0,69,0.00,,,0.00,Wunderground v.1.15,2013-01-03 17:28:00,
2013-01-03 12:29:00,26.6,17.8,30.20,WNW,296,3.0,6.0,69,0.00,,,0.00,Wunderground v.1.15,2013-01-03 17:29:00,
2013-01-03 12:33:00,26.6,17.8,30.20,WNW,295,3.0,9.0,69,0.00,,,0.00,Wunderground v.1.15,2013-01-03 17:33:00,
2013-01-03 12:34:00,26.6,17.8,30.20,West,281,3.0,9.0,69,0.00,,,0.00,Wunderground v.1.15,2013-01-03 17:34:00,
2013-01-03 12:35:00,26.7,18.2,30.20,NNW,328,3.0,9.0,70,0.00,,,0.00,Wunderground v.1.15,2013-01-03 17:35:00,
2013-01-03 12:37:00,26.9,18.1,30.20,West,271,3.0,9.0,69,0.00,,,0.00,Wunderground v.1.15,2013-01-03 17:37:00,
2013-01-03 12:40:00,27.0,18.2,30.19,West,264,3.0,3.0,69,0.00,,,0.00,Wunderground v.1.15,2013-01-03 17:40:00,
2013-01-03 12:42:00,27.1,18.3,30.19,West,270,2.0,3.0,69,0.00,,,0.00,Wunderground v.1.15,2013-01-03 17:42:00,
2013-01-03 12:44:00,27.2,17.7,30.19,West,281,3.0,6.0,67,0.00,,,0.00,Wunderground v.1.15,2013-01-03 17:44:00,
2013-01-03 12:45:00,27.2,17.7,30.20,WNW,294,3.0,6.0,67,0.00,,,0.00,Wunderground v.1.15,2013-01-03 17:45:00,
2013-01-03 12:46:00,27.3,18.1,30.19,WNW,296,3.0,6.0,68,0.00,,,0.00,Wunderground v.1.15,2013-01-03 17:46:00,
2013-01-03 12:48:00,27.4,18.2,30.19,WNW,286,3.0,6.0,68,0.00,,,0.00,Wunderground v.1.15,2013-01-03 17:48:00,
2013-01-03 12:52:00,27.6,18.1,30.20,NW,311,3.0,5.0,67,0.00,,,0.00,Wunderground v.1.15,2013-01-03 17:52:00,
2013-01-03 12:54:00,27.6,17.7,30.20,WNW,293,3.0,5.0,66,0.00,,,0.00,Wunderground v.1.15,2013-01-03 17:54:00,
2013-01-03 12:58:00,27.7,17.8,30.19,WNW,291,3.0,5.0,66,0.00,,,0.00,Wunderground v.1.15,2013-01-03 17:58:00,
2013-01-03 12:59:00,27.7,18.2,30.19,WNW,288,3.0,5.0,67,0.00,,,0.00,Wunderground v.1.15,2013-01-03 17:59:00,
2013-01-03 13:00:00,27.7,17.8,30.19,NNW,344,3.0,9.0,66,0.00,,,0.00,Wunderground v.1.15,2013-01-03 18:00:00,
2013-01-03 13:05:00,27.8,17.9,30.19,NW,313,3.0,9.0,66,0.00,,,0.00,Wunderground v.1.15,2013-01-03 18:05:00,
2013-01-03 13:06:00,27.8,17.9,30.19,WNW,286,3.0,9.0,66,0.00,,,0.00,Wunderground v.1.15,2013-01-03 18:06:00,
2013-01-03 13:10:00,28.0,18.5,30.19,West,271,3.0,5.0,67,0.00,,,0.00,Wunderground v.1.15,2013-01-03 18:10:00,
2013-01-03 13:11:00,28.0,18.5,30.19,West,281,3.0,5.0,67,0.00,,,0.00,Wunderground v.1.15,2013-01-03 18:11:00,
2013-01-03 13:12:00,28.1,18.9,30.19,WNW,284,3.0,5.0,68,0.00,,,0.00,Wunderground v.1.15,2013-01-03 18:12:00,
2013-01-03 13:17:00,28.3,18.7,30.19,WNW,302,3.0,6.0,67,0.00,,,0.00,Wunderground v.1.15,2013-01-03 18:17:00,
2013-01-03 13:18:00,28.3,18.7,30.19,West,280,3.0,6.0,67,0.00,,,0.00,Wunderground v.1.15,2013-01-03 18:18:00,
2013-01-03 13:19:00,28.4,18.8,30.19,West,260,3.0,6.0,67,0.00,,,0.00,Wunderground v.1.15,2013-01-03 18:19:00,
2013-01-03 13:21:00,28.4,18.8,30.19,NW,325,3.0,5.0,67,0.00,,,0.00,Wunderground v.1.15,2013-01-03 18:21:00,
2013-01-03 13:24:00,28.4,18.5,30.19,NW,320,3.0,6.0,66,0.00,,,0.00,Wunderground v.1.15,2013-01-03 18:24:00,
2013-01-03 13:26:00,28.4,18.5,30.19,WNW,302,3.0,6.0,66,0.00,,,0.00,Wunderground v.1.15,2013-01-03 18:26:00,
2013-01-03 13:28:00,28.4,18.8,30.18,West,267,3.0,6.0,67,0.00,,,0.00,Wunderground v.1.15,2013-01-03 18:28:00,
2013-01-03 13:29:00,28.4,18.8,30.18,WNW,296,3.0,6.0,67,0.00,,,0.00,Wunderground v.1.15,2013-01-03 18:29:00,
2013-01-03 13:33:00,28.5,18.6,30.18,North,360,3.0,9.0,66,0.00,,,0.00,Wunderground v.1.15,2013-01-03 18:33:00,
2013-01-03 13:34:00,28.5,18.6,30.18,NW,314,3.0,9.0,66,0.00,,,0.00,Wunderground v.1.15,2013-01-03 18:34:00,
2013-01-03 13:39:00,28.6,18.7,30.18,West,271,2.0,9.0,66,0.00,,,0.00,Wunderground v.1.15,2013-01-03 18:39:00,
2013-01-03 13:40:00,28.7,19.1,30.18,WNW,295,2.0,4.0,67,0.00,,,0.00,Wunderground v.1.15,2013-01-03 18:40:00,
2013-01-03 13:43:00,28.8,18.9,30.18,West,280,2.0,4.0,66,0.00,,,0.00,Wunderground v.1.15,2013-01-03 18:43:00,
2013-01-03 13:44:00,28.7,18.8,30.18,NW,307,2.0,4.0,66,0.00,,,0.00,Wunderground v.1.15,2013-01-03 18:44:00,
2013-01-03 13:46:00,28.7,18.8,30.18,WNW,286,2.0,4.0,66,0.00,,,0.00,Wunderground v.1.15,2013-01-03 18:46:00,
2013-01-03 13:50:00,28.8,18.9,30.18,WNW,285,2.0,2.0,66,0.00,,,0.00,Wunderground v.1.15,2013-01-03 18:50:00,
2013-01-03 13:51:00,28.8,18.9,30.18,West,273,2.0,2.0,66,0.00,,,0.00,Wunderground v.1.15,2013-01-03 18:51:00,
2013-01-03 13:52:00,28.8,18.9,30.18,WNW,294,3.0,3.0,66,0.00,,,0.00,Wunderground v.1.15,2013-01-03 18:52:00,
2013-01-03 13:55:00,28.8,18.9,30.18,NW,326,3.0,4.0,66,0.00,,,0.00,Wunderground v.1.15,2013-01-03 18:55:00,
2013-01-03 13:57:00,28.8,19.2,30.18,West,273,3.0,4.0,67,0.00,,,0.00,Wunderground v.1.15,2013-01-03 18:57:00,
2013-01-03 13:58:00,28.8,19.2,30.18,WNW,300,3.0,4.0,67,0.00,,,0.00,Wunderground v.1.15,2013-01-03 18:58:00,
2013-01-03 14:03:00,28.8,18.9,30.18,WNW,290,2.0,9.0,66,0.00,,,0.00,Wunderground v.1.15,2013-01-03 19:03:00,
2013-01-03 14:04:00,28.7,18.8,30.18,WNW,284,2.0,9.0,66,0.00,,,0.00,Wunderground v.1.15,2013-01-03 19:04:00,
2013-01-03 14:05:00,28.7,18.8,30.18,WNW,286,2.0,9.0,66,0.00,,,0.00,Wunderground v.1.15,2013-01-03 19:05:00,
2013-01-03 14:10:00,28.8,18.9,30.18,WNW,289,1.0,1.0,66,0.00,,,0.00,Wunderground v.1.15,2013-01-03 19:10:00,
2013-01-03 14:11:00,28.9,19.3,30.18,WNW,294,1.0,1.0,67,0.00,,,0.00,Wunderground v.1.15,2013-01-03 19:11:00,
2013-01-03 14:12:00,29.0,19.1,30.18,NNW,337,1.0,7.0,66,0.00,,,0.00,Wunderground v.1.15,2013-01-03 19:12:00,
2013-01-03 14:15:00,28.9,19.0,30.18,West,272,2.0,8.0,66,0.00,,,0.00,Wunderground v.1.15,2013-01-03 19:15:00,
2013-01-03 14:17:00,28.9,19.3,30.18,West,281,2.0,8.0,67,0.00,,,0.00,Wunderground v.1.15,2013-01-03 19:17:00,
2013-01-03 14:18:00,29.0,19.1,30.18,West,279,2.0,8.0,66,0.00,,,0.00,Wunderground v.1.15,2013-01-03 19:18:00,
2013-01-03 14:51:00,29.6,19.6,30.18,WNW,285,1.0,1.0,66,0.00,,,0.00,Wunderground v.1.15,2013-01-03 19:51:00,
2013-01-03 14:56:00,29.7,19.7,30.18,WNW,288,1.0,4.0,66,0.00,,,0.00,Wunderground v.1.15,2013-01-03 19:56:00,
2013-01-03 14:58:00,29.7,19.7,30.18,WNW,290,1.0,4.0,66,0.00,,,0.00,Wunderground v.1.15,2013-01-03 19:58:00,
2013-01-03 15:01:00,29.7,19.7,30.18,WNW,291,1.0,8.0,66,0.00,,,0.00,Wunderground v.1.15,2013-01-03 20:01:00,
2013-01-03 15:03:00,29.8,19.8,30.18,West,266,0.0,8.0,66,0.00,,,0.00,Wunderground v.1.15,2013-01-03 20:03:00,
2013-01-03 15:04:00,29.9,19.9,30.18,West,259,0.0,8.0,66,0.00,,,0.00,Wunderground v.1.15,2013-01-03 20:04:00,
2013-01-03 15:05:00,29.9,19.9,30.18,West,259,0.0,8.0,66,0.00,,,0.00,Wunderground v.1.15,2013-01-03 20:05:00,
2013-01-03 15:10:00,30.1,20.1,30.18,West,275,0.0,4.0,66,0.00,,,0.00,Wunderground v.1.15,2013-01-03 20:10:00,
2013-01-03 15:12:00,30.1,20.1,30.18,West,279,1.0,4.0,66,0.00,,,0.00,Wunderground v.1.15,2013-01-03 20:12:00,
2013-01-03 15:14:00,30.1,20.1,30.18,West,277,1.0,4.0,66,0.00,,,0.00,Wunderground v.1.15,2013-01-03 20:14:00,
2013-01-03 15:16:00,30.1,20.1,30.18,SW,234,1.0,4.0,66,0.00,,,0.00,Wunderground v.1.15,2013-01-03 20:16:00,
2013-01-03 15:17:00,30.1,20.1,30.18,WSW,254,1.0,4.0,66,0.00,,,0.00,Wunderground v.1.15,2013-01-03 20:17:00,
2013-01-03 15:19:00,30.2,19.8,30.18,WSW,254,1.0,4.0,65,0.00,,,0.00,Wunderground v.1.15,2013-01-03 20:19:00,
2013-01-03 15:21:00,30.3,20.3,30.18,West,263,1.0,1.0,66,0.00,,,0.00,Wunderground v.1.15,2013-01-03 20:21:00,
2013-01-03 15:24:00,30.3,20.3,30.18,West,267,0.0,1.0,66,0.00,,,0.00,Wunderground v.1.15,2013-01-03 20:24:00,
2013-01-03 15:27:00,30.3,20.3,30.18,West,265,0.0,1.0,66,0.00,,,0.00,Wunderground v.1.15,2013-01-03 20:27:00,
2013-01-03 15:30:00,30.3,20.3,30.18,West,265,0.0,1.0,66,0.00,,,0.00,Wunderground v.1.15,2013-01-03 20:30:00,
2013-01-03 15:33:00,30.3,20.3,30.18,West,262,0.0,5.0,66,0.00,,,0.00,Wunderground v.1.15,2013-01-03 20:33:00,
2013-01-03 15:34:00,30.2,19.8,30.18,West,260,0.0,5.0,65,0.00,,,0.00,Wunderground v.1.15,2013-01-03 20:34:00,
2013-01-03 15:35:00,30.2,19.8,30.18,West,263,0.0,5.0,65,0.00,,,0.00,Wunderground v.1.15,2013-01-03 20:35:00,
2013-01-03 15:37:00,30.2,20.2,30.18,West,268,0.0,5.0,66,0.00,,,0.00,Wunderground v.1.15,2013-01-03 20:37:00,
2013-01-03 15:41:00,30.1,19.7,30.18,West,260,1.0,1.0,65,0.00,,,0.00,Wunderground v.1.15,2013-01-03 20:41:00,
2013-01-03 15:42:00,30.1,19.7,30.18,West,263,1.0,1.0,65,0.00,,,0.00,Wunderground v.1.15,2013-01-03 20:42:00,
2013-01-03 15:45:00,30.0,20.0,30.18,West,279,1.0,1.0,66,0.00,,,0.00,Wunderground v.1.15,2013-01-03 20:45:00,
2013-01-03 15:46:00,30.0,19.7,30.18,West,279,1.0,1.0,65,0.00,,,0.00,Wunderground v.1.15,2013-01-03 20:46:00,
2013-01-03 15:47:00,30.0,20.0,30.18,West,263,1.0,2.0,66,0.00,,,0.00,Wunderground v.1.15,2013-01-03 20:47:00,
2013-01-03 15:50:00,30.0,20.0,30.18,West,279,1.0,1.0,66,0.00,,,0.00,Wunderground v.1.15,2013-01-03 20:50:00,
2013-01-03 15:51:00,30.0,20.0,30.18,West,271,1.0,3.0,66,0.00,,,0.00,Wunderground v.1.15,2013-01-03 20:51:00,
2013-01-03 15:53:00,29.9,19.6,30.18,West,260,1.0,3.0,65,0.00,,,0.00,Wunderground v.1.15,2013-01-03 20:53:00,
2013-01-03 15:56:00,29.9,19.9,30.18,West,276,1.0,3.0,66,0.00,,,0.00,Wunderground v.1.15,2013-01-03 20:56:00,
2013-01-03 15:58:00,29.8,19.5,30.18,WNW,284,1.0,3.0,65,0.00,,,0.00,Wunderground v.1.15,2013-01-03 20:58:00,
2013-01-03 16:01:00,29.7,19.7,30.18,SW,222,1.0,5.0,66,0.00,,,0.00,Wunderground v.1.15,2013-01-03 21:01:00,
2013-01-03 16:03:00,29.6,19.6,30.18,WSW,253,0.0,5.0,66,0.00,,,0.00,Wunderground v.1.15,2013-01-03 21:03:00,
2013-01-03 16:06:00,29.6,19.6,30.18,SW,218,0.0,5.0,66,0.00,,,0.00,Wunderground v.1.15,2013-01-03 21:06:00,
2013-01-03 16:09:00,29.6,20.0,30.19,West,260,0.0,5.0,67,0.00,,,0.00,Wunderground v.1.15,2013-01-03 21:09:00,
2013-01-03 16:10:00,29.6,19.6,30.19,West,265,0.0,0.0,66,0.00,,,0.00,Wunderground v.1.15,2013-01-03 21:10:00,
2013-01-03 16:13:00,29.5,19.9,30.19,West,265,0.0,0.0,67,0.00,,,0.00,Wunderground v.1.15,2013-01-03 21:13:00,
2013-01-03 16:16:00,29.6,20.3,30.19,West,266,0.0,0.0,68,0.00,,,0.00,Wunderground v.1.15,2013-01-03 21:16:00,
2013-01-03 16:19:00,29.5,20.2,30.19,West,267,0.0,0.0,68,0.00,,,0.00,Wunderground v.1.15,2013-01-03 21:19:00,
2013-01-03 16:21:00,29.4,19.8,30.19,West,263,0.0,2.0,67,0.00,,,0.00,Wunderground v.1.15,2013-01-03 21:21:00,
2013-01-03 16:25:00,29.3,19.7,30.19,West,261,1.0,2.0,67,0.00,,,0.00,Wunderground v.1.15,2013-01-03 21:25:00,
2013-01-03 16:26:00,29.2,19.6,30.19,West,261,1.0,2.0,67,0.00,,,0.00,Wunderground v.1.15,2013-01-03 21:26:00,
2013-01-03 16:28:00,29.2,19.6,30.19,West,261,1.0,2.0,67,0.00,,,0.00,Wunderground v.1.15,2013-01-03 21:28:00,
2013-01-03 16:29:00,29.2,19.6,30.19,West,261,1.0,2.0,67,0.00,,,0.00,Wunderground v.1.15,2013-01-03 21:29:00,
2013-01-03 16:32:00,29.2,19.6,30.19,West,267,0.0,4.0,67,0.00,,,0.00,Wunderground v.1.15,2013-01-03 21:32:00,
2013-01-03 16:34:00,29.1,19.5,30.19,West,269,0.0,4.0,67,0.00,,,0.00,Wunderground v.1.15,2013-01-03 21:34:00,
2013-01-03 16:35:00,29.1,19.5,30.19,West,269,0.0,4.0,67,0.00,,,0.00,Wunderground v.1.15,2013-01-03 21:35:00,
2013-01-03 16:39:00,29.0,19.4,30.19,West,269,1.0,4.0,67,0.00,,,0.00,Wunderground v.1.15,2013-01-03 21:39:00,
2013-01-03 16:44:00,28.9,19.3,30.19,West,269,0.0,1.0,67,0.00,,,0.00,Wunderground v.1.15,2013-01-03 21:44:00,
2013-01-03 16:46:00,28.8,19.6,30.19,West,269,0.0,1.0,68,0.00,,,0.00,Wunderground v.1.15,2013-01-03 21:46:00,
2013-01-03 16:52:00,28.5,19.3,30.19,West,269,0.0,0.0,68,0.00,,,0.00,Wunderground v.1.15,2013-01-03 21:52:00,
2013-01-03 16:53:00,28.5,18.9,30.19,West,269,0.0,0.0,67,0.00,,,0.00,Wunderground v.1.15,2013-01-03 21:53:00,
2013-01-03 16:54:00,28.5,19.3,30.19,West,272,0.0,0.0,68,0.00,,,0.00,Wunderground v.1.15,2013-01-03 21:54:00,
2013-01-03 16:55:00,28.4,19.2,30.19,West,271,0.0,0.0,68,0.00,,,0.00,Wunderground v.1.15,2013-01-03 21:55:00,
2013-01-03 16:59:00,28.2,19.0,30.19,West,271,0.0,0.0,68,0.00,,,0.00,Wunderground v.1.15,2013-01-03 21:59:00,
2013-01-03 17:00:00,28.2,19.0,30.19,West,271,0.0,0.0,68,0.00,,,0.00,Wunderground v.1.15,2013-01-03 22:00:00,
2013-01-03 17:01:00,28.2,19.0,30.19,West,271,0.0,4.0,68,0.00,,,0.00,Wunderground v.1.15,2013-01-03 22:01:00,
2013-01-03 17:02:00,28.1,18.9,30.19,West,271,0.0,4.0,68,0.00,,,0.00,Wunderground v.1.15,2013-01-03 22:02:00,
2013-01-03 17:06:00,28.0,18.8,30.19,West,271,0.0,4.0,68,0.00,,,0.00,Wunderground v.1.15,2013-01-03 22:06:00,
2013-01-03 17:08:00,27.9,18.7,30.19,West,271,0.0,4.0,68,0.00,,,0.00,Wunderground v.1.15,2013-01-03 22:08:00,
2013-01-03 17:09:00,27.8,18.6,30.19,West,271,0.0,4.0,68,0.00,,,0.00,Wunderground v.1.15,2013-01-03 22:09:00,
2013-01-03 17:14:00,27.8,18.6,30.19,West,271,0.0,0.0,68,0.00,,,0.00,Wunderground v.1.15,2013-01-03 22:14:00,
2013-01-03 17:15:00,27.8,18.6,30.19,West,271,0.0,0.0,68,0.00,,,0.00,Wunderground v.1.15,2013-01-03 22:15:00,
2013-01-03 17:17:00,27.8,18.6,30.20,West,271,0.0,0.0,68,0.00,,,0.00,Wunderground v.1.15,2013-01-03 22:17:00,
2013-01-03 17:19:00,27.7,18.5,30.20,West,271,0.0,0.0,68,0.00,,,0.00,Wunderground v.1.15,2013-01-03 22:19:00,
2013-01-03 17:20:00,27.7,18.5,30.20,West,271,0.0,0.0,68,0.00,,,0.00,Wunderground v.1.15,2013-01-03 22:20:00,
2013-01-03 17:24:00,27.7,18.5,30.20,West,273,0.0,0.0,68,0.00,,,0.00,Wunderground v.1.15,2013-01-03 22:24:00,
2013-01-03 17:25:00,27.7,18.5,30.20,West,273,0.0,0.0,68,0.00,,,0.00,Wunderground v.1.15,2013-01-03 22:25:00,
2013-01-03 17:28:00,27.6,18.4,30.19,West,274,0.0,0.0,68,0.00,,,0.00,Wunderground v.1.15,2013-01-03 22:28:00,
2013-01-03 17:30:00,27.6,18.4,30.19,West,268,0.0,1.0,68,0.00,,,0.00,Wunderground v.1.15,2013-01-03 22:30:00,
2013-01-03 17:32:00,27.6,18.4,30.19,West,267,1.0,3.0,68,0.00,,,0.00,Wunderground v.1.15,2013-01-03 22:32:00,
2013-01-03 17:33:00,27.5,18.3,30.19,West,267,1.0,3.0,68,0.00,,,0.00,Wunderground v.1.15,2013-01-03 22:33:00,
2013-01-03 17:34:00,27.5,18.7,30.19,West,267,1.0,3.0,69,0.00,,,0.00,Wunderground v.1.15,2013-01-03 22:34:00,
2013-01-03 17:39:00,27.4,18.2,30.20,West,273,2.0,3.0,68,0.00,,,0.00,Wunderground v.1.15,2013-01-03 22:39:00,
2013-01-03 17:40:00,27.5,18.3,30.19,West,272,2.0,2.0,68,0.00,,,0.00,Wunderground v.1.15,2013-01-03 22:40:00,
2013-01-03 17:44:00,27.6,18.4,30.19,West,274,2.0,2.0,68,0.00,,,0.00,Wunderground v.1.15,2013-01-03 22:44:00,
2013-01-03 17:45:00,27.5,18.3,30.19,West,273,1.0,2.0,68,0.00,,,0.00,Wunderground v.1.15,2013-01-03 22:45:00,
2013-01-03 17:47:00,27.6,18.4,30.20,West,274,1.0,3.0,68,0.00,,,0.00,Wunderground v.1.15,2013-01-03 22:47:00,
2013-01-03 17:48:00,27.6,18.4,30.20,West,269,1.0,4.0,68,0.00,,,0.00,Wunderground v.1.15,2013-01-03 22:48:00,
2013-01-03 17:52:00,27.7,18.5,30.20,West,272,1.0,2.0,68,0.00,,,0.00,Wunderground v.1.15,2013-01-03 22:52:00,
2013-01-03 17:53:00,27.7,18.5,30.20,West,273,1.0,2.0,68,0.00,,,0.00,Wunderground v.1.15,2013-01-03 22:53:00,
2013-01-03 17:56:00,27.7,18.8,30.20,West,272,1.0,2.0,69,0.00,,,0.00,Wunderground v.1.15,2013-01-03 22:56:00,
2013-01-03 17:58:00,27.6,18.4,30.19,West,262,1.0,2.0,68,0.00,,,0.00,Wunderground v.1.15,2013-01-03 22:58:00,
2013-01-03 17:59:00,27.6,18.8,30.19,West,263,1.0,2.0,69,0.00,,,0.00,Wunderground v.1.15,2013-01-03 22:59:00,
2013-01-03 18:04:00,27.6,18.4,30.20,West,269,0.0,3.0,68,0.00,,,0.00,Wunderground v.1.15,2013-01-03 23:04:00,
2013-01-03 18:06:00,27.7,18.5,30.20,WNW,290,1.0,3.0,68,0.00,,,0.00,Wunderground v.1.15,2013-01-03 23:06:00,
2013-01-03 18:07:00,27.7,18.8,30.20,WNW,289,1.0,3.0,69,0.00,,,0.00,Wunderground v.1.15,2013-01-03 23:07:00,
2013-01-03 18:10:00,27.7,18.8,30.20,West,276,1.0,1.0,69,0.00,,,0.00,Wunderground v.1.15,2013-01-03 23:10:00,
2013-01-03 18:11:00,27.7,18.8,30.20,West,274,1.0,1.0,69,0.00,,,0.00,Wunderground v.1.15,2013-01-03 23:11:00,
2013-01-03 18:15:00,27.6,18.8,30.20,West,275,1.0,1.0,69,0.00,,,0.00,Wunderground v.1.15,2013-01-03 23:15:00,
2013-01-03 18:16:00,27.6,18.8,30.20,West,275,1.0,1.0,69,0.00,,,0.00,Wunderground v.1.15,2013-01-03 23:16:00,
2013-01-03 18:20:00,27.4,18.6,30.20,West,272,0.0,2.0,69,0.00,,,0.00,Wunderground v.1.15,2013-01-03 23:20:00,
2013-01-03 18:21:00,27.3,18.5,30.20,West,272,0.0,2.0,69,0.00,,,0.00,Wunderground v.1.15,2013-01-03 23:21:00,
2013-01-03 18:22:00,27.3,18.5,30.20,West,272,0.0,2.0,69,0.00,,,0.00,Wunderground v.1.15,2013-01-03 23:22:00,
2013-01-03 18:27:00,27.3,18.5,30.20,West,266,0.0,2.0,69,0.00,,,0.00,Wunderground v.1.15,2013-01-03 23:27:00,
2013-01-03 18:28:00,27.2,18.7,30.20,West,265,1.0,2.0,70,0.00,,,0.00,Wunderground v.1.15,2013-01-03 23:28:00,
2013-01-03 18:31:00,27.2,18.7,30.20,West,269,1.0,5.0,70,0.00,,,0.00,Wunderground v.1.15,2013-01-03 23:31:00,
2013-01-03 18:33:00,27.2,18.4,30.20,West,268,1.0,5.0,69,0.00,,,0.00,Wunderground v.1.15,2013-01-03 23:33:00,
2013-01-03 18:34:00,27.1,18.6,30.20,West,269,1.0,5.0,70,0.00,,,0.00,Wunderground v.1.15,2013-01-03 23:34:00,
2013-01-03 18:39:00,27.0,18.5,30.20,West,269,1.0,5.0,70,0.00,,,0.00,Wunderground v.1.15,2013-01-03 23:39:00,
2013-01-03 18:40:00,27.1,18.6,30.20,West,268,1.0,1.0,70,0.00,,,0.00,Wunderground v.1.15,2013-01-03 23:40:00,
2013-01-03 18:44:00,27.2,18.7,30.20,West,269,1.0,3.0,70,0.00,,,0.00,Wunderground v.1.15,2013-01-03 23:44:00,
2013-01-03 18:45:00,27.2,18.7,30.20,West,261,1.0,4.0,70,0.00,,,0.00,Wunderground v.1.15,2013-01-03 23:45:00,
2013-01-03 18:48:00,27.3,18.8,30.20,West,275,2.0,4.0,70,0.00,,,0.00,Wunderground v.1.15,2013-01-03 23:48:00,
2013-01-03 18:50:00,27.2,18.7,30.20,West,264,1.0,3.0,70,0.00,,,0.00,Wunderground v.1.15,2013-01-03 23:50:00,
2013-01-03 18:51:00,27.2,18.7,30.19,West,264,1.0,3.0,70,0.00,,,0.00,Wunderground v.1.15,2013-01-03 23:51:00,
2013-01-03 18:52:00,27.2,18.7,30.20,West,259,1.0,3.0,70,0.00,,,0.00,Wunderground v.1.15,2013-01-03 23:52:00,
2013-01-03 18:56:00,27.2,18.7,30.20,West,263,1.0,4.0,70,0.00,,,0.00,Wunderground v.1.15,2013-01-03 23:56:00,
2013-01-03 18:58:00,27.2,19.0,30.20,West,267,1.0,4.0,71,0.00,,,0.00,Wunderground v.1.15,2013-01-03 23:58:00,
2013-01-03 18:59:00,27.2,19.0,30.20,West,261,1.0,4.0,71,0.00,,,0.00,Wunderground v.1.15,2013-01-03 23:59:00,
2013-01-03 19:04:00,27.4,18.9,30.20,West,277,2.0,4.0,70,0.00,,,0.00,Wunderground v.1.15,2013-01-04 00:04:00,
2013-01-03 19:05:00,27.4,18.9,30.20,West,271,2.0,4.0,70,0.00,,,0.00,Wunderground v.1.15,2013-01-04 00:05:00,
2013-01-03 19:07:00,27.4,18.9,30.20,West,271,1.0,4.0,70,0.00,,,0.00,Wunderground v.1.15,2013-01-04 00:07:00,
2013-01-03 19:11:00,27.3,18.8,30.20,West,274,1.0,2.0,70,0.00,,,0.00,Wunderground v.1.15,2013-01-04 00:11:00,
2013-01-03 19:15:00,27.2,19.0,30.21,West,279,1.0,2.0,71,0.00,,,0.00,Wunderground v.1.15,2013-01-04 00:15:00,
2013-01-03 19:16:00,27.2,19.0,30.21,West,279,0.0,2.0,71,0.00,,,0.00,Wunderground v.1.15,2013-01-04 00:16:00,
2013-01-03 19:17:00,27.1,18.9,30.21,West,279,0.0,2.0,71,0.00,,,0.00,Wunderground v.1.15,2013-01-04 00:17:00,
2013-01-03 19:20:00,27.1,18.9,30.21,West,279,0.0,0.0,71,0.00,,,0.00,Wunderground v.1.15,2013-01-04 00:20:00,
2013-01-03 19:21:00,27.1,18.9,30.21,West,267,0.0,0.0,71,0.00,,,0.00,Wunderground v.1.15,2013-01-04 00:21:00,
2013-01-03 19:24:00,27.1,18.9,30.21,West,271,0.0,0.0,71,0.00,,,0.00,Wunderground v.1.15,2013-01-04 00:24:00,
2013-01-03 19:28:00,27.1,18.9,30.21,West,268,1.0,3.0,71,0.00,,,0.00,Wunderground v.1.15,2013-01-04 00:28:00,
2013-01-03 19:29:00,27.2,19.0,30.21,West,267,1.0,3.0,71,0.00,,,0.00,Wunderground v.1.15,2013-01-04 00:29:00,
2013-01-03 19:30:00,27.3,19.1,30.21,West,269,1.0,2.0,71,0.00,,,0.00,Wunderground v.1.15,2013-01-04 00:30:00,
2013-01-03 19:31:00,27.3,19.1,30.21,West,276,1.0,5.0,71,0.00,,,0.00,Wunderground v.1.15,2013-01-04 00:31:00,
2013-01-03 19:36:00,27.4,18.9,30.21,WNW,286,1.0,5.0,70,0.00,,,0.00,Wunderground v.1.15,2013-01-04 00:36:00,
2013-01-03 19:37:00,27.4,18.9,30.21,WNW,284,2.0,5.0,70,0.00,,,0.00,Wunderground v.1.15,2013-01-04 00:37:00,
2013-01-03 19:41:00,27.7,19.2,30.21,West,279,1.0,4.0,70,0.00,,,0.00,Wunderground v.1.15,2013-01-04 00:41:00,
2013-01-03 19:42:00,27.7,19.2,30.21,West,275,1.0,4.0,70,0.00,,,0.00,Wunderground v.1.15,2013-01-04 00:42:00,
2013-01-03 19:43:00,27.7,19.2,30.21,West,275,2.0,4.0,70,0.00,,,0.00,Wunderground v.1.15,2013-01-04 00:43:00,
2013-01-03 19:47:00,27.6,19.1,30.21,West,262,2.0,4.0,70,0.00,,,0.00,Wunderground v.1.15,2013-01-04 00:47:00,
2013-01-03 19:48:00,27.6,19.1,30.21,WNW,282,2.0,4.0,70,0.00,,,0.00,Wunderground v.1.15,2013-01-04 00:48:00,
2013-01-03 19:51:00,27.7,19.2,30.21,WNW,289,2.0,3.0,70,0.00,,,0.00,Wunderground v.1.15,2013-01-04 00:51:00,
2013-01-03 19:53:00,27.7,19.2,30.21,West,263,2.0,5.0,70,0.00,,,0.00,Wunderground v.1.15,2013-01-04 00:53:00,
2013-01-03 19:55:00,27.7,19.2,30.21,West,270,2.0,5.0,70,0.00,,,0.00,Wunderground v.1.15,2013-01-04 00:55:00,
2013-01-03 19:56:00,27.8,19.3,30.21,WNW,284,2.0,5.0,70,0.00,,,0.00,Wunderground v.1.15,2013-01-04 00:56:00,
2013-01-03 20:02:00,27.8,19.3,30.21,WNW,289,1.0,5.0,70,0.00,,,0.00,Wunderground v.1.15,2013-01-04 01:02:00,
2013-01-03 20:04:00,27.8,18.9,30.21,West,279,1.0,5.0,69,0.00,,,0.00,Wunderground v.1.15,2013-01-04 01:04:00,
2013-01-03 20:06:00,27.9,19.0,30.20,WNW,288,1.0,5.0,69,0.00,,,0.00,Wunderground v.1.15,2013-01-04 01:06:00,
2013-01-03 20:10:00,27.8,19.3,30.21,WNW,288,1.0,1.0,70,0.00,,,0.00,Wunderground v.1.15,2013-01-04 01:10:00,
2013-01-03 20:11:00,27.8,19.3,30.21,WNW,286,1.0,1.0,70,0.00,,,0.00,Wunderground v.1.15,2013-01-04 01:11:00,
2013-01-03 20:13:00,27.7,19.2,30.21,West,280,0.0,1.0,70,0.00,,,0.00,Wunderground v.1.15,2013-01-04 01:13:00,
2013-01-03 20:16:00,27.8,19.3,30.21,West,273,0.0,1.0,70,0.00,,,0.00,Wunderground v.1.15,2013-01-04 01:16:00,
2013-01-03 20:19:00,27.7,19.2,30.21,West,274,0.0,2.0,70,0.00,,,0.00,Wunderground v.1.15,2013-01-04 01:19:00,
2013-01-03 20:21:00,27.7,19.2,30.21,West,273,1.0,2.0,70,0.00,,,0.00,Wunderground v.1.15,2013-01-04 01:21:00,
2013-01-03 20:25:00,27.7,19.2,30.21,WNW,293,1.0,3.0,70,0.00,,,0.00,Wunderground v.1.15,2013-01-04 01:25:00,
2013-01-03 20:27:00,27.5,19.0,30.21,WNW,283,1.0,3.0,70,0.00,,,0.00,Wunderground v.1.15,2013-01-04 01:27:00,
2013-01-03 20:28:00,27.6,19.1,30.21,West,273,2.0,4.0,70,0.00,,,0.00,Wunderground v.1.15,2013-01-04 01:28:00,
2013-01-03 20:31:00,27.6,19.1,30.20,West,273,2.0,3.0,70,0.00,,,0.00,Wunderground v.1.15,2013-01-04 01:31:00,
2013-01-03 20:34:00,27.7,19.2,30.20,WNW,284,2.0,5.0,70,0.00,,,0.00,Wunderground v.1.15,2013-01-04 01:34:00,
2013-01-03 20:36:00,27.8,19.3,30.20,WNW,287,3.0,5.0,70,0.00,,,0.00,Wunderground v.1.15,2013-01-04 01:36:00,
2013-01-03 20:37:00,27.7,19.2,30.20,WNW,285,3.0,5.0,70,0.00,,,0.00,Wunderground v.1.15,2013-01-04 01:37:00,
2013-01-03 20:39:00,27.7,19.2,30.20,WNW,284,3.0,5.0,70,0.00,,,0.00,Wunderground v.1.15,2013-01-04 01:39:00,
2013-01-03 20:42:00,27.8,18.9,30.19,WNW,302,4.0,5.0,69,0.00,,,0.00,Wunderground v.1.15,2013-01-04 01:42:00,
2013-01-03 20:45:00,28.0,19.1,30.19,WNW,284,4.0,5.0,69,0.00,,,0.00,Wunderground v.1.15,2013-01-04 01:45:00,
2013-01-03 20:47:00,28.3,19.4,30.19,NW,326,4.0,9.0,69,0.00,,,0.00,Wunderground v.1.15,2013-01-04 01:47:00,
2013-01-03 20:48:00,28.3,19.4,30.19,West,280,5.0,9.0,69,0.00,,,0.00,Wunderground v.1.15,2013-01-04 01:48:00,
2013-01-03 20:50:00,28.5,19.6,30.20,WNW,282,5.0,5.0,69,0.00,,,0.00,Wunderground v.1.15,2013-01-04 01:50:00,
2013-01-03 20:51:00,28.5,19.3,30.20,NW,307,5.0,5.0,68,0.00,,,0.00,Wunderground v.1.15,2013-01-04 01:51:00,
2013-01-03 20:53:00,28.6,19.4,30.20,West,276,5.0,5.0,68,0.00,,,0.00,Wunderground v.1.15,2013-01-04 01:53:00,
2013-01-03 20:55:00,28.7,19.5,30.20,West,266,5.0,6.0,68,0.00,,,0.00,Wunderground v.1.15,2013-01-04 01:55:00,
2013-01-03 20:57:00,28.7,19.5,30.20,WNW,290,5.0,6.0,68,0.00,,,0.00,Wunderground v.1.15,2013-01-04 01:57:00,
2013-01-03 21:01:00,28.7,19.5,30.21,West,267,4.0,6.0,68,0.00,,,0.00,Wunderground v.1.15,2013-01-04 02:01:00,
2013-01-03 21:03:00,28.7,19.5,30.20,WNW,291,3.0,6.0,68,0.00,,,0.00,Wunderground v.1.15,2013-01-04 02:03:00,
2013-01-03 21:04:00,28.7,19.8,30.20,WNW,296,3.0,6.0,69,0.00,,,0.00,Wunderground v.1.15,2013-01-04 02:04:00,
2013-01-03 21:07:00,28.6,19.7,30.21,WNW,293,3.0,6.0,69,0.00,,,0.00,Wunderground v.1.15,2013-01-04 02:07:00,
2013-01-03 21:09:00,28.5,19.6,30.21,West,265,3.0,6.0,69,0.00,,,0.00,Wunderground v.1.15,2013-01-04 02:09:00,
2013-01-03 21:10:00,28.5,19.6,30.21,West,268,3.0,4.0,69,0.00,,,0.00,Wunderground v.1.15,2013-01-04 02:10:00,
2013-01-03 21:13:00,28.7,19.8,30.21,WNW,290,4.0,5.0,69,0.00,,,0.00,Wunderground v.1.15,2013-01-04 02:13:00,
2013-01-03 21:15:00,28.8,19.9,30.21,WNW,290,4.0,6.0,69,0.00,,,0.00,Wunderground v.1.15,2013-01-04 02:15:00,
2013-01-03 21:16:00,28.8,19.9,30.21,WNW,287,4.0,6.0,69,0.00,,,0.00,Wunderground v.1.15,2013-01-04 02:16:00,
2013-01-03 21:20:00,28.9,19.7,30.21,WNW,298,4.0,5.0,68,0.00,,,0.00,Wunderground v.1.15,2013-01-04 02:20:00,
2013-01-03 21:23:00,28.9,19.7,30.21,West,277,4.0,5.0,68,0.00,,,0.00,Wunderground v.1.15,2013-01-04 02:23:00,
2013-01-03 21:25:00,28.9,20.0,30.21,WSW,253,4.0,5.0,69,0.00,,,0.00,Wunderground v.1.15,2013-01-04 02:25:00,
2013-01-03 21:26:00,28.9,19.7,30.21,WNW,287,4.0,5.0,68,0.00,,,0.00,Wunderground v.1.15,2013-01-04 02:26:00,
2013-01-03 21:29:00,28.9,20.0,30.21,WNW,284,4.0,6.0,69,0.00,,,0.00,Wunderground v.1.15,2013-01-04 02:29:00,
2013-01-03 21:30:00,28.9,20.0,30.21,WNW,291,4.0,5.0,69,0.00,,,0.00,Wunderground v.1.15,2013-01-04 02:30:00,
2013-01-03 21:32:00,28.8,19.9,30.20,West,275,4.0,12.0,69,0.00,,,0.00,Wunderground v.1.15,2013-01-04 02:32:00,
2013-01-03 21:37:00,28.8,19.9,30.20,WNW,286,5.0,12.0,69,0.00,,,0.00,Wunderground v.1.15,2013-01-04 02:37:00,
2013-01-03 21:38:00,28.8,19.9,30.20,NNW,331,5.0,12.0,69,0.00,,,0.00,Wunderground v.1.15,2013-01-04 02:38:00,
2013-01-03 21:39:00,28.8,19.9,30.20,WNW,291,5.0,12.0,69,0.00,,,0.00,Wunderground v.1.15,2013-01-04 02:39:00,
2013-01-03 21:42:00,28.7,19.8,30.20,WNW,285,5.0,6.0,69,0.00,,,0.00,Wunderground v.1.15,2013-01-04 02:42:00,
2013-01-03 21:44:00,28.7,19.8,30.21,WNW,286,5.0,6.0,69,0.00,,,0.00,Wunderground v.1.15,2013-01-04 02:44:00,
2013-01-03 21:46:00,28.7,19.8,30.21,WNW,284,5.0,6.0,69,0.00,,,0.00,Wunderground v.1.15,2013-01-04 02:46:00,
2013-01-03 21:52:00,28.6,19.7,30.21,West,267,4.0,6.0,69,0.00,,,0.00,Wunderground v.1.15,2013-01-04 02:52:00,
2013-01-03 21:53:00,28.7,20.1,30.21,WNW,294,4.0,6.0,70,0.00,,,0.00,Wunderground v.1.15,2013-01-04 02:53:00,
2013-01-03 21:57:00,28.6,20.1,30.21,WNW,287,4.0,6.0,70,0.00,,,0.00,Wunderground v.1.15,2013-01-04 02:57:00,
2013-01-03 21:58:00,28.5,20.3,30.21,WNW,284,4.0,6.0,71,0.00,,,0.00,Wunderground v.1.15,2013-01-04 02:58:00,
2013-01-03 21:59:00,28.4,20.2,30.21,West,278,4.0,6.0,71,0.00,,,0.00,Wunderground v.1.15,2013-01-04 02:59:00,
2013-01-03 22:00:00,28.4,19.9,30.21,West,281,4.0,5.0,70,0.00,,,0.00,Wunderground v.1.15,2013-01-04 03:00:00,
2013-01-03 22:03:00,28.4,20.2,30.21,WNW,290,4.0,8.0,71,0.00,,,0.00,Wunderground v.1.15,2013-01-04 03:03:00,
2013-01-03 22:04:00,28.4,20.2,30.21,WNW,288,4.0,8.0,71,0.00,,,0.00,Wunderground v.1.15,2013-01-04 03:04:00,
2013-01-03 22:06:00,28.3,20.1,30.20,NW,309,4.0,8.0,71,0.00,,,0.00,Wunderground v.1.15,2013-01-04 03:06:00,
2013-01-03 22:08:00,28.3,19.8,30.20,WNW,303,5.0,8.0,70,0.00,,,0.00,Wunderground v.1.15,2013-01-04 03:08:00,
2013-01-03 22:10:00,28.4,19.9,30.20,NNW,337,5.0,7.0,70,0.00,,,0.00,Wunderground v.1.15,2013-01-04 03:10:00,
2013-01-03 22:14:00,28.6,20.1,30.19,NW,314,6.0,7.0,70,0.00,,,0.00,Wunderground v.1.15,2013-01-04 03:14:00,
2013-01-03 22:16:00,28.5,20.0,30.20,WNW,300,7.0,10.0,70,0.00,,,0.00,Wunderground v.1.15,2013-01-04 03:16:00,
2013-01-03 22:21:00,28.5,20.0,30.20,WNW,286,6.0,6.0,70,0.00,,,0.00,Wunderground v.1.15,2013-01-04 03:21:00,
2013-01-03 22:23:00,28.4,19.9,30.21,WNW,300,5.0,6.0,70,0.00,,,0.00,Wunderground v.1.15,2013-01-04 03:23:00,
2013-01-03 22:24:00,28.4,19.9,30.21,West,259,5.0,7.0,70,0.00,,,0.00,Wunderground v.1.15,2013-01-04 03:24:00,
2013-01-03 22:28:00,28.3,20.1,30.22,WNW,292,3.0,7.0,71,0.00,,,0.00,Wunderground v.1.15,2013-01-04 03:28:00,
2013-01-03 22:29:00,28.3,20.1,30.22,WNW,302,3.0,7.0,71,0.00,,,0.00,Wunderground v.1.15,2013-01-04 03:29:00,
2013-01-03 22:30:00,28.3,20.1,30.22,WNW,283,3.0,3.0,71,0.00,,,0.00,Wunderground v.1.15,2013-01-04 03:30:00,
2013-01-03 22:31:00,28.3,20.1,30.21,WNW,282,3.0,10.0,71,0.00,,,0.00,Wunderground v.1.15,2013-01-04 03:31:00,
2013-01-03 22:35:00,28.4,20.2,30.21,WNW,286,4.0,10.0,71,0.00,,,0.00,Wunderground v.1.15,2013-01-04 03:35:00,
2013-01-03 22:38:00,28.4,20.2,30.20,WNW,296,4.0,10.0,71,0.00,,,0.00,Wunderground v.1.15,2013-01-04 03:38:00,
2013-01-03 22:39:00,28.4,21.8,30.20,WNW,292,5.0,10.0,76,0.00,,,0.00,Wunderground v.1.15,2013-01-04 03:39:00,
2013-01-03 22:41:00,28.5,20.3,30.20,West,281,6.0,8.0,71,0.00,,,0.00,Wunderground v.1.15,2013-01-04 03:41:00,
2013-01-03 22:43:00,28.5,20.3,30.19,WNW,292,6.0,8.0,71,0.00,,,0.00,Wunderground v.1.15,2013-01-04 03:43:00,
2013-01-03 22:46:00,28.4,20.2,30.19,WNW,285,6.0,9.0,71,0.00,,,0.00,Wunderground v.1.15,2013-01-04 03:46:00,
2013-01-03 22:48:00,28.4,22.1,30.19,WNW,298,7.0,9.0,77,0.00,,,0.00,Wunderground v.1.15,2013-01-04 03:48:00,
2013-01-03 22:52:00,28.3,20.1,30.19,NW,306,7.0,7.0,71,0.00,,,0.00,Wunderground v.1.15,2013-01-04 03:52:00,
2013-01-03 22:53:00,28.3,20.1,30.19,WNW,297,7.0,10.0,71,0.00,,,0.00,Wunderground v.1.15,2013-01-04 03:53:00,
2013-01-03 22:54:00,28.4,20.2,30.19,WNW,287,7.0,10.0,71,0.00,,,0.00,Wunderground v.1.15,2013-01-04 03:54:00,
2013-01-03 22:58:00,28.4,20.2,30.20,WNW,284,6.0,10.0,71,0.00,,,0.00,Wunderground v.1.15,2013-01-04 03:58:00,
2013-01-03 22:59:00,28.4,20.2,30.20,WNW,299,6.0,10.0,71,0.00,,,0.00,Wunderground v.1.15,2013-01-04 03:59:00,
2013-01-03 23:00:00,28.4,20.2,30.20,WNW,288,6.0,8.0,71,0.00,,,0.00,Wunderground v.1.15,2013-01-04 04:00:00,
2013-01-03 23:02:00,28.4,20.2,30.20,West,267,6.0,11.0,71,0.00,,,0.00,Wunderground v.1.15,2013-01-04 04:02:00,
2013-01-03 23:06:00,28.4,22.1,30.20,WNW,294,6.0,11.0,77,0.00,,,0.00,Wunderground v.1.15,2013-01-04 04:06:00,
2013-01-03 23:08:00,28.4,22.1,30.20,NW,307,6.0,11.0,77,0.00,,,0.00,Wunderground v.1.15,2013-01-04 04:08:00,
2013-01-03 23:11:00,28.5,20.3,30.19,WNW,287,7.0,10.0,71,0.00,,,0.00,Wunderground v.1.15,2013-01-04 04:11:00,
2013-01-03 23:12:00,28.5,20.3,30.19,NW,317,7.0,10.0,71,0.00,,,0.00,Wunderground v.1.15,2013-01-04 04:12:00,
2013-01-03 23:14:00,28.4,20.2,30.19,WNW,296,7.0,10.0,71,0.00,,,0.00,Wunderground v.1.15,2013-01-04 04:14:00,
2013-01-03 23:15:00,28.3,20.1,30.19,WNW,288,7.0,10.0,71,0.00,,,0.00,Wunderground v.1.15,2013-01-04 04:15:00,
2013-01-03 23:18:00,28.3,20.4,30.18,West,269,8.0,10.0,72,0.00,,,0.00,Wunderground v.1.15,2013-01-04 04:18:00,
2013-01-03 23:21:00,28.2,20.3,30.18,WNW,296,8.0,9.0,72,0.00,,,0.00,Wunderground v.1.15,2013-01-04 04:21:00,
2013-01-03 23:24:00,28.3,20.1,30.18,WNW,298,8.0,9.0,71,0.00,,,0.00,Wunderground v.1.15,2013-01-04 04:24:00,
2013-01-03 23:26:00,28.3,20.1,30.18,West,270,8.0,9.0,71,0.00,,,0.00,Wunderground v.1.15,2013-01-04 04:26:00,
2013-01-03 23:28:00,28.3,20.4,30.18,WNW,301,8.0,9.0,72,0.00,,,0.00,Wunderground v.1.15,2013-01-04 04:28:00,
2013-01-03 23:31:00,28.3,20.4,30.18,West,279,7.0,10.0,72,0.00,,,0.00,Wunderground v.1.15,2013-01-04 04:31:00,
2013-01-03 23:32:00,28.3,20.4,30.18,WNW,302,7.0,16.0,72,0.00,,,0.00,Wunderground v.1.15,2013-01-04 04:32:00,
2013-01-03 23:33:00,28.3,20.4,30.18,WNW,286,7.0,16.0,72,0.00,,,0.00,Wunderground v.1.15,2013-01-04 04:33:00,
2013-01-03 23:35:00,28.3,20.4,30.18,West,281,7.0,16.0,72,0.00,,,0.00,Wunderground v.1.15,2013-01-04 04:35:00,
2013-01-03 23:38:00,28.3,20.4,30.19,NNW,333,6.0,16.0,72,0.00,,,0.00,Wunderground v.1.15,2013-01-04 04:38:00,
2013-01-03 23:39:00,28.2,20.3,30.19,West,281,6.0,16.0,72,0.00,,,0.00,Wunderground v.1.15,2013-01-04 04:39:00,
2013-01-03 23:40:00,28.1,20.2,30.19,WNW,293,6.0,6.0,72,0.00,,,0.00,Wunderground v.1.15,2013-01-04 04:40:00,
2013-01-03 23:44:00,28.1,20.2,30.19,WNW,288,5.0,6.0,72,0.00,,,0.00,Wunderground v.1.15,2013-01-04 04:44:00,
2013-01-03 23:45:00,28.1,20.2,30.19,NNW,345,5.0,11.0,72,0.00,,,0.00,Wunderground v.1.15,2013-01-04 04:45:00,
2013-01-03 23:49:00,28.3,20.4,30.20,WNW,289,4.0,11.0,72,0.00,,,0.00,Wunderground v.1.15,2013-01-04 04:49:00,
2013-01-03 23:50:00,28.3,20.4,30.20,West,277,3.0,4.0,72,0.00,,,0.00,Wunderground v.1.15,2013-01-04 04:50:00,
2013-01-03 23:52:00,28.4,20.5,30.20,WNW,296,3.0,4.0,72,0.00,,,0.00,Wunderground v.1.15,2013-01-04 04:52:00,
2013-01-03 23:55:00,28.4,20.5,30.20,NW,317,3.0,4.0,72,0.00,,,0.00,Wunderground v.1.15,2013-01-04 04:55:00,
2013-01-03 23:57:00,28.5,20.6,30.20,WNW,290,3.0,4.0,72,0.00,,,0.00,Wunderground v.1.15,2013-01-04 04:57:00,
2013-01-03 23:58:00,28.5,20.6,30.20,NW,315,3.0,4.0,72,0.00,,,0.00,Wunderground v.1.15,2013-01-04 04:58:00,
2013-01-03 23:59:00,28.5,20.6,30.20,West,265,3.0,4.0,72,0.00,,,0.00,Wunderground v.1.15,2013-01-04 04:59:00,